WD9GET Weather Reports


Display with metric or nautical units.
time (UTC)temp
F
wind
direction
speed
MPH
gust
MPH
rain 1hr
in
rain 24hr
in
rain mn
in
humidity
%
barometer
mb
20260509203509 91 277 1.0 3.0 0.00 0.00 0.00 62 1007.7
20260509203409 91 26 1.0 3.0 0.00 0.00 0.00 61 1007.7
20260509203306 90 150 1.0 4.0 0.00 0.00 0.00 62 1007.9
20260509203300 91 242 1.0 3.0 0.00 0.00 0.00 60 1007.8
20260509203253 91 74 1.0 3.0 0.00 0.00 0.00 60 1007.8
20260509203200 91 53 1.0 3.0 0.00 0.00 0.00 62 1007.8
20260509203141 91 35 1.0 3.0 0.00 0.00 0.00 61 1007.8
20260509202956 91 65 1.0 3.0 0.00 0.00 0.00 61 1007.8
20260509202923 90 192 1.0 4.0 0.00 0.00 0.00 62 1007.9
20260509202918 90 150 1.0 4.0 0.00 0.00 0.00 62 1007.9
20260509201921 90 223 2.0 4.0 0.00 0.00 0.00 62 1007.9
20260509201821 90 194 1.0 4.0 0.00 0.00 0.00 63 1008.0
20260509201728 90 126 1.0 4.0 0.00 0.00 0.00 63 1008.0
20260509201719 90 258 1.0 4.0 0.00 0.00 0.00 62 1008.0
20260509201620 90 105 1.0 4.0 0.00 0.00 0.00 63 1008.0
20260509201519 90 78 1.0 4.0 0.00 0.00 0.00 63 1008.0
20260509201412 90 111 1.0 4.0 0.00 0.00 0.00 64 1008.0
20260509201312 90 59 1.0 4.0 0.00 0.00 0.00 63 1008.0
20260509201226 90 76 1.0 4.0 0.00 0.00 0.00 63 1008.0
20260509201209 90 117 1.0 4.0 0.00 0.00 0.00 63 1008.0
20260509201109 91 65 1.0 3.0 0.00 0.00 0.00 62 1008.0
20260509201006 90 87 1.0 3.0 0.00 0.00 0.00 62 1008.0
20260509200907 90 77 1.0 3.0 0.00 0.00 0.00 63 1008.0
20260509200805 90 182 1.0 3.0 0.00 0.00 0.00 62 1008.0
20260509200723 90 154 1.0 3.0 0.00 0.00 0.00 62 1008.0
20260509200706 90 349 1.0 3.0 0.00 0.00 0.00 61 1008.0
20260509200603 90 185 1.0 3.0 0.00 0.00 0.00 62 1008.0
20260509200503 89 232 1.0 3.0 0.00 0.00 0.00 66 1008.1
20260509200403 89 198 1.0 5.0 0.00 0.00 0.00 66 1008.1
20260509200303 89 259 1.0 5.0 0.00 0.00 0.00 66 1008.1
20260509200219 89 6 1.0 5.0 0.00 0.00 0.00 66 1008.1
20260509200203 89 5 1.0 5.0 0.00 0.00 0.00 66 1008.1
20260509200103 89 339 1.0 5.0 0.00 0.00 0.00 66 1008.1
20260509195956 89 99 2.0 5.0 0.00 0.00 0.00 67 1008.1
20260509195858 89 97 2.0 5.0 0.00 0.00 0.00 67 1008.1
20260509195756 89 355 2.0 5.0 0.00 0.00 0.00 67 1008.1
20260509195720 89 23 2.0 5.0 0.00 0.00 0.00 67 1008.1
20260509195653 89 0 2.0 5.0 0.00 0.00 0.00 67 1008.1
20260509195551 89 134 2.0 5.0 0.00 0.00 0.00 67 1008.1
20260509195451 89 51 2.0 5.0 0.00 0.00 0.00 66 1008.1
20260509195351 90 96 2.0 5.0 0.00 0.00 0.00 66 1008.1
20260509195251 90 184 2.0 4.0 0.00 0.00 0.00 66 1008.1
20260509195220 90 57 1.0 4.0 0.00 0.00 0.00 66 1008.1
20260509195151 90 21 1.0 4.0 0.00 0.00 0.00 66 1008.2
20260509195051 90 282 1.0 4.0 0.00 0.00 0.00 65 1008.2
20260509194951 90 66 1.0 4.0 0.00 0.00 0.00 66 1008.2
20260509194851 90 35 1.0 3.0 0.00 0.00 0.00 64 1008.2
20260509194751 90 53 1.0 2.0 0.00 0.00 0.00 64 1008.2
20260509194720 90 58 1.0 2.0 0.00 0.00 0.00 64 1008.2
20260509194651 90 75 1.0 2.0 0.00 0.00 0.00 64 1008.2
20260509194550 90 324 1.0 2.0 0.00 0.00 0.00 63 1008.2
20260509194451 90 262 1.0 3.0 0.00 0.00 0.00 65 1008.2
20260509194352 90 44 1.0 3.0 0.00 0.00 0.00 65 1008.3
20260509194252 90 12 1.0 3.0 0.00 0.00 0.00 65 1008.3
20260509194220 90 20 1.0 3.0 0.00 0.00 0.00 65 1008.3
20260509194151 90 0 1.0 3.0 0.00 0.00 0.00 64 1008.2
20260509194048 90 260 1.0 3.0 0.00 0.00 0.00 64 1008.2
20260509193945 89 252 1.0 3.0 0.00 0.00 0.00 64 1008.2
20260509193845 89 30 1.0 3.0 0.00 0.00 0.00 64 1008.2
20260509193745 89 161 1.0 4.0 0.00 0.00 0.00 64 1008.2
20260509193720 89 23 1.0 4.0 0.00 0.00 0.00 64 1008.2
20260509193646 89 335 1.0 4.0 0.00 0.00 0.00 64 1008.2
20260509193545 89 335 2.0 5.0 0.00 0.00 0.00 64 1008.2
20260509193446 89 347 1.0 5.0 0.00 0.00 0.00 65 1008.3
20260509193346 89 329 1.0 5.0 0.00 0.00 0.00 65 1008.3
20260509193246 89 318 2.0 5.0 0.00 0.00 0.00 65 1008.3
20260509193220 89 0 2.0 5.0 0.00 0.00 0.00 65 1008.3
20260509193145 89 228 2.0 5.0 0.00 0.00 0.00 65 1008.3
20260509193045 89 218 1.0 5.0 0.00 0.00 0.00 67 1008.3
20260509192945 89 261 1.0 5.0 0.00 0.00 0.00 67 1008.3
20260509192840 89 224 1.0 5.0 0.00 0.00 0.00 66 1008.3
20260509192741 89 153 1.0 5.0 0.00 0.00 0.00 65 1008.3
20260509192721 89 121 1.0 5.0 0.00 0.00 0.00 65 1008.3
20260509192640 89 103 1.0 5.0 0.00 0.00 0.00 65 1008.3
20260509192530 89 323 1.0 4.0 0.00 0.00 0.00 65 1008.3
20260509192420 89 53 1.0 4.0 0.00 0.00 0.00 68 1008.3
20260509192307 89 25 1.0 4.0 0.00 0.00 0.00 68 1008.3
20260509192221 89 5 1.0 4.0 0.00 0.00 0.00 68 1008.3
20260509192204 89 72 1.0 4.0 0.00 0.00 0.00 68 1008.3
20260509192104 88 55 1.0 4.0 0.00 0.00 0.00 67 1008.4
20260509192004 88 203 1.0 4.0 0.00 0.00 0.00 67 1008.4
20260509191849 88 110 1.0 4.0 0.00 0.00 0.00 67 1008.4
20260509191746 88 204 1.0 4.0 0.00 0.00 0.00 67 1008.4
20260509191719 88 47 1.0 3.0 0.00 0.00 0.00 69 1008.4
20260509191646 88 205 1.0 5.0 0.00 0.00 0.00 69 1008.4
20260509191546 88 0 1.0 5.0 0.00 0.00 0.00 70 1008.4
20260509191446 88 0 2.0 5.0 0.00 0.00 0.00 69 1008.4
20260509191343 88 212 2.0 5.0 0.00 0.00 0.00 68 1008.3
20260509191237 88 78 2.0 5.0 0.00 0.00 0.00 68 1008.3
20260509191219 88 93 2.0 5.0 0.00 0.00 0.00 70 1008.3
20260509191137 88 256 2.0 5.0 0.00 0.00 0.00 70 1008.3
20260509191037 88 195 2.0 5.0 0.00 0.00 0.00 68 1008.3
20260509190944 88 358 2.0 5.0 0.00 0.00 0.00 67 1008.3
20260509190934 88 329 2.0 5.0 0.00 0.00 0.00 68 1008.3
20260509190831 88 341 2.0 5.0 0.00 0.00 0.00 68 1008.3
20260509190824 88 14 2.0 5.0 0.00 0.00 0.00 68 1008.3
20260509190631 88 230 1.0 5.0 0.00 0.00 0.00 67 1008.3
20260509190531 88 310 1.0 4.0 0.00 0.00 0.00 67 1008.3
20260509190428 88 229 1.0 4.0 0.00 0.00 0.00 67 1008.3
20260509190327 88 243 1.0 4.0 0.00 0.00 0.00 65 1008.3
20260509190228 88 249 1.0 3.0 0.00 0.00 0.00 66 1008.3
20260509190220 88 226 1.0 3.0 0.00 0.00 0.00 69 1008.3
20260509190125 88 334 1.0 3.0 0.00 0.00 0.00 69 1008.3
20260509190022 88 116 1.0 3.0 0.00 0.00 0.00 69 1008.3
20260509185922 88 335 1.0 3.0 0.00 0.00 0.00 69 1008.4
20260509185821 88 261 1.0 4.0 0.00 0.00 0.00 69 1008.4
20260509185721 88 296 1.0 4.0 0.00 0.00 0.00 70 1008.4
20260509185619 88 342 2.0 4.0 0.00 0.00 0.00 70 1008.4
20260509185519 88 319 2.0 5.0 0.00 0.00 0.00 71 1008.4
20260509185420 87 316 2.0 5.0 0.00 0.00 0.00 72 1008.4
20260509185319 87 341 2.0 5.0 0.00 0.00 0.00 71 1008.4
20260509185220 87 329 2.0 5.0 0.00 0.00 0.00 69 1008.4
20260509185119 87 324 2.0 5.0 0.00 0.00 0.00 69 1008.4
20260509185019 87 53 2.0 5.0 0.00 0.00 0.00 68 1008.5
20260509184919 87 70 2.0 5.0 0.00 0.00 0.00 68 1008.5
20260509184819 87 117 2.0 5.0 0.00 0.00 0.00 69 1008.6
20260509184719 87 9 2.0 5.0 0.00 0.00 0.00 70 1008.6
20260509184619 87 325 2.0 5.0 0.00 0.00 0.00 70 1008.6
20260509184519 88 344 2.0 5.0 0.00 0.00 0.00 71 1008.6
20260509184420 88 76 1.0 4.0 0.00 0.00 0.00 69 1008.6
20260509184316 88 32 1.0 4.0 0.00 0.00 0.00 69 1008.7
20260509184221 88 54 1.0 4.0 0.00 0.00 0.00 69 1008.7
20260509184216 88 59 1.0 4.0 0.00 0.00 0.00 69 1008.7
20260509184116 87 23 1.0 3.0 0.00 0.00 0.00 71 1008.7
20260509184013 87 0 1.0 3.0 0.00 0.00 0.00 69 1008.7
20260509183910 88 259 1.0 3.0 0.00 0.00 0.00 68 1008.7
20260509183810 87 239 1.0 3.0 0.00 0.00 0.00 69 1008.7
20260509183718 87 250 1.0 5.0 0.00 0.00 0.00 74 1008.7
20260509183710 87 230 1.0 5.0 0.00 0.00 0.00 74 1008.7
20260509183610 87 1 1.0 5.0 0.00 0.00 0.00 74 1008.7
20260509183510 87 357 1.0 5.0 0.00 0.00 0.00 73 1008.7
20260509183410 87 331 2.0 6.0 0.00 0.00 0.00 72 1008.7
20260509183311 87 119 2.0 6.0 0.00 0.00 0.00 72 1008.7
20260509183218 86 56 2.0 7.0 0.00 0.00 0.00 71 1008.7
20260509183211 86 114 2.0 7.0 0.00 0.00 0.00 71 1008.7
20260509183111 86 315 2.0 7.0 0.00 0.00 0.00 72 1008.7
20260509183011 86 357 2.0 7.0 0.00 0.00 0.00 73 1008.8
20260509182934 86 0 2.0 7.0 0.00 0.00 0.00 71 1008.9
20260509182911 86 331 2.0 7.0 0.00 0.00 0.00 73 1008.8
20260509182820 86 336 2.0 7.0 0.00 0.00 0.00 72 1008.9
20260509182710 86 0 2.0 7.0 0.00 0.00 0.00 71 1008.9
20260509182610 86 4 2.0 7.0 0.00 0.00 0.00 75 1008.9
20260509182510 86 307 2.0 7.0 0.00 0.00 0.00 75 1008.9
20260509182410 86 251 2.0 7.0 0.00 0.00 0.00 73 1009.0
20260509182310 86 56 2.0 7.0 0.00 0.00 0.00 73 1009.0
20260509182216 86 19 2.0 5.0 0.00 0.00 0.00 73 1009.0
20260509182210 86 29 2.0 5.0 0.00 0.00 0.00 73 1009.0
20260509182110 86 76 2.0 5.0 0.00 0.00 0.00 72 1009.0
20260509182010 86 243 2.0 5.0 0.00 0.00 0.00 74 1009.1
20260509181910 86 226 1.0 3.0 0.00 0.00 0.00 73 1009.1
20260509181811 86 236 1.0 4.0 0.00 0.00 0.00 74 1009.1
20260509181716 86 222 1.0 5.0 0.00 0.00 0.00 72 1009.1
20260509181710 86 160 1.0 5.0 0.00 0.00 0.00 72 1009.1
20260509181610 85 101 1.0 5.0 0.00 0.00 0.00 75 1009.0
20260509181510 85 0 1.0 5.0 0.00 0.00 0.00 75 1009.0
20260509181407 85 91 1.0 5.0 0.00 0.00 0.00 75 1009.0
20260509181308 85 318 2.0 5.0 0.00 0.00 0.00 75 1009.0
20260509181215 85 239 2.0 6.0 0.00 0.00 0.00 75 1009.0
20260509181207 85 300 2.0 6.0 0.00 0.00 0.00 75 1009.0
20260509181105 85 357 2.0 6.0 0.00 0.00 0.00 75 1009.1
20260509181005 85 304 2.0 6.0 0.00 0.00 0.00 75 1009.1
20260509180905 85 324 2.0 6.0 0.00 0.00 0.00 75 1009.1
20260509180753 85 336 2.0 6.0 0.00 0.00 0.00 76 1009.2
20260509180715 85 0 2.0 6.0 0.00 0.00 0.00 77 1009.2
20260509180652 85 324 2.0 6.0 0.00 0.00 0.00 77 1009.2
20260509180550 85 334 2.0 6.0 0.00 0.00 0.00 75 1009.2
20260509180447 85 38 2.0 6.0 0.00 0.00 0.00 75 1009.2
20260509180347 85 31 2.0 6.0 0.00 0.00 0.00 75 1009.2
20260509180244 85 10 2.0 6.0 0.00 0.00 0.00 76 1009.3
20260509180216 85 3 2.0 6.0 0.00 0.00 0.00 79 1009.3
20260509180144 85 351 2.0 5.0 0.00 0.00 0.00 79 1009.3
20260509180044 85 340 2.0 5.0 0.00 0.00 0.00 79 1009.3
20260509175941 85 278 2.0 5.0 0.00 0.00 0.00 79 1009.3
20260509175838 85 43 2.0 5.0 0.00 0.00 0.00 79 1009.3
20260509175735 85 310 2.0 5.0 0.00 0.00 0.00 80 1009.3
20260509175715 85 0 2.0 5.0 0.00 0.00 0.00 79 1009.3
20260509175635 85 335 2.0 5.0 0.00 0.00 0.00 79 1009.3
20260509175532 85 13 2.0 5.0 0.00 0.00 0.00 80 1009.3
20260509175439 85 331 2.0 7.0 0.00 0.00 0.00 80 1009.4
20260509175432 85 1 2.0 5.0 0.00 0.00 0.00 80 1009.3
20260509175332 85 52 2.0 5.0 0.00 0.00 0.00 79 1009.3
20260509175319 85 321 2.0 5.0 0.00 0.00 0.00 80 1009.3
20260509175132 85 333 2.0 7.0 0.00 0.00 0.00 80 1009.4
20260509175032 85 357 2.0 7.0 0.00 0.00 0.00 80 1009.4
20260509174931 84 311 2.0 7.0 0.00 0.00 0.00 79 1009.4
20260509174833 84 333 2.0 7.0 0.00 0.00 0.00 80 1009.4
20260509174733 84 48 2.0 7.0 0.00 0.00 0.00 81 1009.5
20260509174713 84 321 2.0 7.0 0.00 0.00 0.00 81 1009.5
20260509174632 84 323 2.0 7.0 0.00 0.00 0.00 81 1009.5
20260509174532 84 351 2.0 7.0 0.00 0.00 0.00 80 1009.5
20260509174432 84 304 2.0 7.0 0.00 0.00 0.00 80 1009.5
20260509174333 84 318 2.0 7.0 0.00 0.00 0.00 80 1009.5
20260509174232 84 319 2.0 7.0 0.00 0.00 0.00 79 1009.5
20260509174212 83 343 2.0 6.0 0.00 0.00 0.00 82 1009.6
20260509174132 83 332 1.0 3.0 0.00 0.00 0.00 82 1009.6
20260509174030 83 14 1.0 3.0 0.00 0.00 0.00 82 1009.6
20260509173926 83 3 1.0 3.0 0.00 0.00 0.00 82 1009.6
20260509173823 83 328 1.0 3.0 0.00 0.00 0.00 81 1009.6
20260509173723 83 336 1.0 3.0 0.00 0.00 0.00 82 1009.6
20260509173712 83 344 1.0 3.0 0.00 0.00 0.00 83 1009.7
20260509173623 83 330 1.0 3.0 0.00 0.00 0.00 83 1009.7
20260509173523 83 308 1.0 3.0 0.00 0.00 0.00 82 1009.7
20260509173429 82 210 1.0 2.0 0.00 0.00 0.00 83 1009.7
20260509173424 82 266 1.0 3.0 0.00 0.00 0.00 82 1009.7
20260509173320 82 238 1.0 2.0 0.00 0.00 0.00 82 1009.7
20260509173312 82 232 1.0 2.0 0.00 0.00 0.00 83 1009.7
20260509173120 82 182 1.0 2.0 0.00 0.00 0.00 83 1009.8
20260509173020 82 0 1.0 2.0 0.00 0.00 0.00 84 1009.8
20260509172920 82 317 1.0 2.0 0.00 0.00 0.00 83 1009.8
20260509172820 82 251 1.0 2.0 0.00 0.00 0.00 83 1009.8
20260509172719 82 203 1.0 2.0 0.00 0.00 0.00 84 1009.8
20260509172706 82 215 1.0 2.0 0.00 0.00 0.00 84 1009.8
20260509172621 82 189 1.0 2.0 0.00 0.00 0.00 84 1009.8
20260509172518 82 59 1.0 2.0 0.00 0.00 0.00 84 1009.9
20260509172417 82 171 1.0 2.0 0.00 0.00 0.00 84 1009.9
20260509172314 82 59 1.0 2.0 0.00 0.00 0.00 84 1009.9
20260509172208 82 12 1.0 2.0 0.00 0.00 0.00 84 1010.0
20260509172102 82 0 1.0 2.0 0.00 0.00 0.00 84 1010.0
20260509172003 82 279 1.0 2.0 0.00 0.00 0.00 84 1010.0
20260509171903 82 223 1.0 3.0 0.00 0.00 0.00 85 1010.0
20260509171800 82 261 1.0 3.0 0.00 0.00 0.00 85 1010.0
20260509171703 82 248 1.0 3.0 0.00 0.00 0.00 84 1010.0
20260509171659 82 0 1.0 3.0 0.00 0.00 0.00 84 1010.0
20260509171600 82 334 1.0 3.0 0.00 0.00 0.00 84 1010.0
20260509171457 82 243 1.0 3.0 0.00 0.00 0.00 84 1010.0
20260509171357 82 195 1.0 3.0 0.00 0.00 0.00 84 1010.0
20260509171257 82 250 1.0 3.0 0.00 0.00 0.00 84 1010.0
20260509171201 82 179 1.0 3.0 0.00 0.00 0.00 85 1010.1
20260509171156 82 182 1.0 3.0 0.00 0.00 0.00 85 1010.1
20260509171057 82 278 1.0 3.0 0.00 0.00 0.00 85 1010.1
20260509170957 82 174 1.0 3.0 0.00 0.00 0.00 84 1010.1
20260509170921 82 205 1.0 3.0 0.00 0.00 0.00 84 1010.1
20260509170857 82 241 1.0 3.0 0.00 0.00 0.00 84 1010.1
20260509170807 82 196 1.0 3.0 0.00 0.00 0.00 84 1010.1
20260509170657 82 196 1.0 3.0 0.00 0.00 0.00 84 1010.1
20260509170557 82 283 1.0 4.0 0.00 0.00 0.00 84 1010.1
20260509170450 82 258 1.0 4.0 0.00 0.00 0.00 84 1010.1
20260509170350 82 240 1.0 4.0 0.00 0.00 0.00 84 1010.0
20260509170250 82 240 2.0 4.0 0.00 0.00 0.00 84 1010.0
20260509170158 82 132 2.0 4.0 0.00 0.00 0.00 84 1010.0
20260509170150 82 202 2.0 4.0 0.00 0.00 0.00 84 1010.0
20260509170051 82 319 2.0 4.0 0.00 0.00 0.00 83 1009.9
20260509165945 82 150 2.0 4.0 0.00 0.00 0.00 84 1009.9
20260509165845 82 255 2.0 4.0 0.00 0.00 0.00 83 1010.0
20260509165742 82 245 2.0 4.0 0.00 0.00 0.00 83 1010.0
20260509165655 82 245 1.0 4.0 0.00 0.00 0.00 83 1010.0
20260509165639 82 215 1.0 4.0 0.00 0.00 0.00 83 1010.0
20260509165539 82 231 1.0 4.0 0.00 0.00 0.00 83 1010.0
20260509165438 82 242 1.0 4.0 0.00 0.00 0.00 84 1010.1
20260509165420 82 1 1.0 4.0 0.00 0.00 0.00 85 1010.1
20260509165336 82 228 1.0 4.0 0.00 0.00 0.00 84 1010.1
20260509165301 82 222 1.0 4.0 0.00 0.00 0.00 84 1010.1
20260509165133 82 248 1.0 3.0 0.00 0.00 0.00 85 1010.1
20260509165033 82 254 1.0 3.0 0.00 0.00 0.00 85 1010.1
20260509164933 82 259 1.0 3.0 0.00 0.00 0.00 84 1010.0
20260509164833 82 202 1.0 4.0 0.00 0.00 0.00 84 1010.0
20260509164730 82 1 1.0 4.0 0.00 0.00 0.00 84 1010.0
20260509164653 82 82 1.0 4.0 0.00 0.00 0.00 84 1010.0
20260509164627 82 61 1.0 4.0 0.00 0.00 0.00 84 1010.0
20260509164524 82 210 1.0 4.0 0.00 0.00 0.00 84 1010.0
20260509164424 82 129 1.0 4.0 0.00 0.00 0.00 85 1009.9
20260509164324 81 0 2.0 4.0 0.00 0.00 0.00 86 1009.9
20260509164223 81 185 1.0 4.0 0.00 0.00 0.00 86 1009.9
20260509164152 81 81 1.0 4.0 0.00 0.00 0.00 86 1009.9
20260509164123 81 0 1.0 4.0 0.00 0.00 0.00 86 1009.9
20260509164022 81 224 2.0 4.0 0.00 0.00 0.00 86 1010.0
20260509163921 81 164 2.0 4.0 0.00 0.00 0.00 87 1010.0
20260509163821 81 343 1.0 4.0 0.00 0.00 0.00 87 1010.1
20260509163721 81 248 1.0 6.0 0.00 0.00 0.00 87 1010.2
20260509163653 81 279 2.0 6.0 0.00 0.00 0.00 87 1010.2
20260509163619 81 174 2.0 6.0 0.00 0.00 0.00 87 1010.2
20260509163519 81 236 2.0 6.0 0.00 0.00 0.00 87 1010.2
20260509163415 81 329 2.0 6.0 0.00 0.00 0.00 87 1010.2
20260509163315 81 177 2.0 6.0 0.00 0.00 0.00 87 1010.2
20260509163206 81 201 2.0 6.0 0.00 0.00 0.00 88 1010.3
20260509163153 81 294 2.0 6.0 0.00 0.00 0.00 88 1010.3
20260509163106 81 228 2.0 6.0 0.00 0.00 0.00 88 1010.3
20260509163011 81 202 2.0 6.0 0.00 0.00 0.00 88 1010.2
20260509162911 81 165 2.0 6.0 0.00 0.00 0.00 89 1010.3
20260509162906 81 171 2.0 6.0 0.00 0.00 0.00 88 1010.3
20260509162806 81 0 2.0 6.0 0.00 0.00 0.00 88 1010.3
20260509162758 81 120 2.0 6.0 0.00 0.00 0.00 89 1010.3
20260509162600 81 83 2.0 4.0 0.00 0.00 0.00 89 1010.3
20260509162457 81 132 2.0 4.0 0.00 0.00 0.00 89 1010.3
20260509162357 81 144 2.0 4.0 0.00 0.00 0.00 89 1010.3
20260509162257 81 103 2.0 4.0 0.00 0.00 0.00 89 1010.3
20260509162154 81 57 2.0 4.0 0.00 0.00 0.00 89 1010.3
20260509162054 81 307 2.0 4.0 0.00 0.00 0.00 89 1010.3
20260509161952 81 198 2.0 4.0 0.00 0.00 0.00 89 1010.3
20260509161852 81 84 2.0 4.0 0.00 0.00 0.00 89 1010.2
20260509161751 81 219 2.0 4.0 0.00 0.00 0.00 89 1010.2
20260509161658 81 171 2.0 4.0 0.00 0.00 0.00 89 1010.1
20260509161654 81 182 2.0 4.0 0.00 0.00 0.00 89 1010.1
20260509161549 81 138 1.0 4.0 0.00 0.00 0.00 89 1010.1
20260509161446 81 108 1.0 4.0 0.00 0.00 0.00 90 1010.1
20260509161346 81 337 1.0 5.0 0.00 0.00 0.00 89 1010.0
20260509161246 81 171 1.0 5.0 0.00 0.00 0.00 89 1010.0
20260509161150 81 229 1.0 5.0 0.00 0.00 0.00 89 1010.0
20260509161146 81 220 1.0 5.0 0.00 0.00 0.00 89 1010.0
20260509161045 81 117 1.0 5.0 0.00 0.00 0.00 89 1009.9
20260509160946 81 232 1.0 5.0 0.00 0.00 0.00 90 1009.9
20260509160912 80 171 1.0 5.0 0.00 0.00 0.00 90 1009.9
20260509160845 80 172 1.0 5.0 0.00 0.00 0.00 90 1009.9
20260509160756 80 305 1.0 5.0 0.00 0.00 0.00 90 1009.9
20260509160646 80 248 1.0 5.0 0.00 0.00 0.00 90 1009.9
20260509160546 80 109 1.0 5.0 0.00 0.00 0.00 90 1009.9
20260509160446 80 176 1.0 5.0 0.00 0.00 0.00 90 1009.9
20260509160346 80 15 1.0 4.0 0.00 0.00 0.00 90 1010.0
20260509160246 80 86 1.0 4.0 0.00 0.00 0.00 90 1010.0
20260509160148 80 255 1.0 4.0 0.00 0.00 0.00 90 1009.9
20260509160140 80 15 1.0 4.0 0.00 0.00 0.00 90 1009.9
20260509160040 80 197 1.0 4.0 0.00 0.00 0.00 90 1009.9
20260509155940 80 202 1.0 4.0 0.00 0.00 0.00 91 1009.9
20260509155840 80 216 1.0 4.0 0.00 0.00 0.00 91 1009.9
20260509155740 80 209 1.0 4.0 0.00 0.00 0.00 91 1009.8
20260509155647 80 108 1.0 4.0 0.00 0.00 0.00 91 1009.6
20260509155640 80 91 1.0 4.0 0.00 0.00 0.00 91 1009.6
20260509155535 80 71 2.0 4.0 0.00 0.00 0.00 91 1009.6
20260509155443 80 214 2.0 6.0 0.00 0.00 0.00 91 1009.6
20260509155335 80 235 2.0 6.0 0.00 0.00 0.00 91 1009.6
20260509155235 80 218 2.0 6.0 0.00 0.00 0.00 92 1009.6
20260509155141 79 187 2.0 6.0 0.00 0.00 0.00 92 1009.6
20260509155136 79 271 2.0 6.0 0.00 0.00 0.00 92 1009.6
20260509155036 79 109 2.0 6.0 0.00 0.00 0.00 92 1009.6
20260509154935 79 61 2.0 6.0 0.00 0.00 0.00 92 1009.6
20260509154835 79 98 2.0 6.0 0.00 0.00 0.00 92 1009.6
20260509154735 79 63 2.0 6.0 0.00 0.00 0.00 92 1009.7
20260509154638 79 157 2.0 6.0 0.00 0.00 0.00 92 1009.7
20260509154634 79 206 2.0 6.0 0.00 0.00 0.00 92 1009.7
20260509154531 79 125 2.0 6.0 0.00 0.00 0.00 92 1009.7
20260509154428 79 114 2.0 5.0 0.00 0.00 0.00 93 1009.8
20260509154328 79 88 2.0 5.0 0.00 0.00 0.00 93 1009.8
20260509154228 79 154 2.0 5.0 0.00 0.00 0.00 93 1009.9
20260509154138 79 149 2.0 5.0 0.00 0.00 0.00 93 1009.9
20260509154128 79 208 2.0 5.0 0.00 0.00 0.00 93 1009.9
20260509154028 79 158 2.0 5.0 0.00 0.00 0.00 93 1009.9
20260509153928 79 204 2.0 5.0 0.00 0.00 0.00 93 1009.9
20260509153828 78 113 2.0 5.0 0.00 0.00 0.00 93 1009.9
20260509153728 78 205 2.0 5.0 0.00 0.00 0.00 93 1010.0
20260509153639 78 202 2.0 5.0 0.00 0.00 0.00 93 1010.0
20260509153625 78 176 2.0 5.0 0.00 0.00 0.00 93 1010.0
20260509153525 78 140 2.0 5.0 0.00 0.00 0.00 94 1010.0
20260509153425 78 149 2.0 5.0 0.00 0.00 0.00 94 1010.0
20260509153326 78 89 2.0 5.0 0.00 0.00 0.00 94 1010.1
20260509153224 78 95 2.0 5.0 0.00 0.00 0.00 95 1010.1
20260509153139 78 90 2.0 4.0 0.00 0.00 0.00 95 1010.1
20260509153124 78 109 2.0 4.0 0.00 0.00 0.00 95 1010.1
20260509153011 78 67 2.0 4.0 0.00 0.00 0.00 95 1010.0
20260509152910 78 134 2.0 4.0 0.00 0.00 0.00 95 1010.0
20260509152745 78 112 2.0 4.0 0.00 0.00 0.00 95 1009.9
20260509152640 78 150 2.0 4.0 0.00 0.00 0.00 95 1009.9
20260509152540 77 216 2.0 4.0 0.00 0.00 0.00 95 1009.8
20260509152440 77 101 2.0 4.0 0.00 0.00 0.00 96 1009.8
20260509152404 77 109 2.0 4.0 0.00 0.00 0.00 96 1009.7
20260509152340 77 191 2.0 4.0 0.00 0.00 0.00 96 1009.8
20260509152251 77 162 2.0 4.0 0.00 0.00 0.00 96 1009.8
20260509152245 77 109 2.0 4.0 0.00 0.00 0.00 96 1009.7
20260509152040 77 113 2.0 4.0 0.00 0.00 0.00 97 1009.7
20260509151941 77 121 2.0 4.0 0.00 0.00 0.00 96 1009.6
20260509151840 77 167 2.0 4.0 0.00 0.00 0.00 97 1009.6
20260509151740 77 179 2.0 4.0 0.00 0.00 0.00 97 1009.6
20260509151640 77 153 2.0 4.0 0.00 0.00 0.00 97 1009.6
20260509151540 77 182 2.0 4.0 0.00 0.00 0.00 97 1009.6
20260509151440 77 105 2.0 4.0 0.00 0.00 0.00 98 1009.5
20260509151340 77 131 2.0 4.0 0.00 0.00 0.00 98 1009.5
20260509151241 77 61 2.0 4.0 0.00 0.00 0.00 98 1009.6
20260509151140 76 98 2.0 4.0 0.00 0.00 0.00 98 1009.6
20260509151025 76 87 2.0 4.0 0.00 0.00 0.00 98 1009.8
20260509150925 76 91 2.0 3.0 0.00 0.00 0.00 98 1009.8
20260509150825 76 105 1.0 2.0 0.00 0.00 0.00 98 1009.9
20260509150729 76 39 1.0 3.0 0.00 0.00 0.00 99 1010.1
20260509150624 76 103 1.0 3.0 0.00 0.00 0.00 99 1010.2
20260509150455 76 76 1.0 3.0 0.00 0.00 0.00 99 1010.2
20260509150356 76 268 2.0 3.0 0.00 0.00 0.00 99 1010.3
20260509150257 76 255 2.0 3.0 0.00 0.00 0.00 99 1010.3
20260509150155 76 233 2.0 3.0 0.00 0.00 0.00 99 1010.3
20260509150055 76 229 2.0 3.0 0.00 0.00 0.00 99 1010.2
20260509145955 76 270 1.0 3.0 0.00 0.00 0.00 99 1009.8
20260509145855 76 254 1.0 3.0 0.00 0.00 0.00 99 1009.8
20260509145755 76 84 1.0 3.0 0.00 0.00 0.00 99 1009.7
20260509145655 76 115 1.0 3.0 0.00 0.00 0.00 99 1009.5
20260509145555 76 104 1.0 3.0 0.00 0.00 0.00 99 1009.5
20260509145455 76 93 1.0 3.0 0.00 0.00 0.00 99 1009.5
20260509145355 76 63 1.0 3.0 0.00 0.00 0.00 99 1009.5
20260509145255 76 0 1.0 3.0 0.00 0.00 0.00 99 1009.6
20260509145155 76 251 1.0 3.0 0.00 0.00 0.00 99 1009.6
20260509145055 76 329 1.0 3.0 0.00 0.00 0.00 99 1009.6
20260509144956 76 247 1.0 3.0 0.00 0.00 0.00 99 1009.5
20260509144855 76 209 1.0 3.0 0.00 0.00 0.00 99 1009.5
20260509144756 76 85 1.0 3.0 0.00 0.00 0.00 99 1009.5
20260509144656 76 256 1.0 3.0 0.00 0.00 0.00 99 1009.5
20260509144556 76 147 1.0 2.0 0.00 0.00 0.00 99 1009.5
20260509144426 76 124 1.0 2.0 0.00 0.00 0.00 99 1009.7
20260509144326 76 73 0.0 2.0 0.00 0.00 0.00 99 1009.8
20260509144227 76 0 1.0 3.0 0.00 0.00 0.00 99 1009.9
20260509144124 76 257 1.0 3.0 0.00 0.00 0.00 99 1010.0
20260509144011 76 257 1.0 3.0 0.00 0.00 0.00 99 1010.0
20260509143856 76 185 1.0 3.0 0.00 0.00 0.00 99 1010.0
20260509143756 76 263 1.0 3.0 0.00 0.00 0.00 99 1010.0
20260509143656 76 143 1.0 3.0 0.00 0.00 0.00 99 1010.0
20260509143541 76 205 1.0 3.0 0.00 0.00 0.00 99 1010.0
20260509143523 76 0 1.0 3.0 0.00 0.00 0.00 99 1009.9
20260509143441 76 0 1.0 3.0 0.00 0.00 0.00 99 1009.9
20260509143326 76 168 1.0 3.0 0.00 0.00 0.00 99 1009.9
20260509143232 76 67 1.0 2.0 0.00 0.00 0.00 99 1010.0
20260509143224 76 111 1.0 3.0 0.00 0.00 0.00 99 1009.9
20260509143124 76 123 1.0 2.0 0.00 0.00 0.00 99 1009.9
20260509143115 76 67 1.0 2.0 0.00 0.00 0.00 99 1010.0
20260509142924 76 0 1.0 2.0 0.00 0.00 0.00 99 1010.0
20260509142825 76 91 1.0 2.0 0.00 0.00 0.00 99 1009.9
20260509142725 76 91 1.0 2.0 0.00 0.00 0.00 99 1009.9
20260509142625 76 123 1.0 2.0 0.00 0.00 0.00 99 1009.9
20260509142511 76 99 1.0 2.0 0.00 0.00 0.00 99 1010.0
20260509142356 76 100 1.0 2.0 0.00 0.00 0.00 99 1010.0
20260509142256 76 100 1.0 2.0 0.00 0.00 0.00 99 1010.1
20260509142157 76 83 1.0 2.0 0.00 0.00 0.00 99 1010.1
20260509142041 76 96 1.0 2.0 0.00 0.00 0.00 99 1010.2
20260509141940 76 195 0.0 2.0 0.00 0.00 0.00 99 1010.3
20260509141840 76 239 0.0 2.0 0.00 0.00 0.00 99 1010.3
20260509141727 76 251 0.0 2.0 0.00 0.00 0.00 99 1010.3
20260509141625 76 248 0.0 1.0 0.00 0.00 0.00 99 1010.2
20260509141527 76 339 0.0 1.0 0.00 0.00 0.00 99 1010.2
20260509141440 76 110 0.0 1.0 0.00 0.00 0.00 99 1010.2
20260509141431 76 87 0.0 2.0 0.00 0.00 0.00 99 1010.2
20260509141426 76 349 0.0 1.0 0.00 0.00 0.00 99 1010.2
20260509141328 76 6 0.0 1.0 0.00 0.00 0.00 99 1010.3
20260509141313 76 160 0.0 1.0 0.00 0.00 0.00 99 1010.3
20260509141125 76 0 0.0 1.0 0.00 0.00 0.00 99 1010.3
20260509141046 76 87 0.0 2.0 0.00 0.00 0.00 99 1010.2
20260509140911 76 0 0.0 2.0 0.00 0.00 0.00 99 1010.2
20260509140756 76 0 1.0 2.0 0.00 0.00 0.00 99 1010.1
20260509140656 76 0 1.0 2.0 0.00 0.00 0.00 99 1010.1
20260509140636 76 172 1.0 2.0 0.00 0.00 0.00 99 1009.9
20260509140555 76 102 1.0 2.0 0.00 0.00 0.00 99 1010.0
20260509140525 76 176 1.0 2.0 0.00 0.00 0.00 99 1009.9
20260509140326 76 56 1.0 2.0 0.00 0.00 0.00 99 1009.9
20260509140304 76 113 1.0 2.0 0.00 0.00 0.00 99 1009.9
20260509140125 76 185 1.0 2.0 0.00 0.00 0.00 99 1009.9
20260509140035 76 175 1.0 2.0 0.00 0.00 0.00 99 1009.9
20260509135925 76 130 1.0 2.0 0.00 0.00 0.00 99 1009.9
20260509135811 76 226 1.0 2.0 0.00 0.00 0.00 99 1009.9
20260509135656 76 78 1.0 2.0 0.00 0.00 0.00 99 1009.9
20260509135650 76 67 1.0 2.0 0.00 0.00 0.00 99 1009.9
20260509135556 76 295 1.0 2.0 0.00 0.00 0.00 99 1009.9
20260509135530 76 57 1.0 2.0 0.00 0.00 0.00 99 1009.9
20260509135342 76 91 1.0 2.0 0.00 0.00 0.00 99 1009.9
20260509135241 76 84 1.0 2.0 0.00 0.00 0.00 99 1009.9
20260509135142 76 73 1.0 2.0 0.00 0.00 0.00 99 1009.9
20260509135042 76 100 1.0 3.0 0.00 0.00 0.00 99 1010.0
20260509134942 75 108 1.0 3.0 0.00 0.00 0.00 99 1010.1
20260509134924 75 142 1.0 3.0 0.00 0.00 0.00 99 1010.1
20260509134842 75 73 1.0 3.0 0.00 0.00 0.00 99 1010.1
20260509134742 75 225 1.0 3.0 0.00 0.00 0.00 99 1010.2
20260509134627 75 213 1.0 3.0 0.00 0.00 0.00 99 1010.2
20260509134525 75 240 1.0 3.0 0.00 0.00 0.00 99 1010.1
20260509134424 75 265 1.0 3.0 0.00 0.00 0.00 99 1010.1
20260509134356 75 279 1.0 3.0 0.00 0.00 0.00 99 1010.1
20260509134256 75 283 1.0 3.0 0.00 0.00 0.00 99 1010.1
20260509134142 75 239 1.0 3.0 0.00 0.00 0.00 99 1010.0
20260509134041 75 244 1.0 3.0 0.00 0.00 0.00 99 1010.0
20260509133942 75 253 1.0 2.0 0.00 0.00 0.00 99 1010.0
20260509133924 75 254 1.0 2.0 0.00 0.00 0.00 99 1009.9
20260509133842 75 236 1.0 2.0 0.00 0.00 0.00 99 1009.9
20260509133727 75 223 1.0 2.0 0.00 0.00 0.00 99 1009.9
20260509133625 75 255 1.0 2.0 0.00 0.00 0.00 99 1009.9
20260509133525 75 81 1.0 2.0 0.00 0.00 0.00 99 1009.9
20260509133425 75 359 1.0 2.0 0.00 0.00 0.00 99 1009.9
20260509133312 75 245 1.0 2.0 0.00 0.00 0.00 99 1009.8
20260509133157 75 273 1.0 3.0 0.00 0.00 0.00 99 1009.8
20260509133057 75 356 1.0 3.0 0.00 0.00 0.00 99 1009.7
20260509132956 75 0 1.0 3.0 0.00 0.00 0.00 99 1009.7
20260509132924 75 328 1.0 3.0 0.00 0.00 0.00 99 1009.6
20260509132856 75 328 1.0 3.0 0.00 0.00 0.00 99 1009.6
20260509132742 75 82 1.0 3.0 0.00 0.00 0.00 99 1009.6
20260509132642 75 70 1.0 3.0 0.00 0.00 0.00 99 1009.5
20260509132543 75 102 1.0 3.0 0.00 0.00 0.00 99 1009.5
20260509132442 75 87 1.0 3.0 0.00 0.00 0.00 99 1009.7
20260509132356 75 83 1.0 3.0 0.00 0.00 0.00 99 1009.7
20260509132342 75 70 1.0 3.0 0.00 0.00 0.00 99 1009.7
20260509132242 75 80 1.0 3.0 0.00 0.00 0.00 99 1009.7
20260509132125 75 45 1.0 2.0 0.00 0.00 0.00 99 1009.8
20260509132025 75 0 1.0 2.0 0.00 0.00 0.00 99 1009.8
20260509131927 75 0 1.0 2.0 0.00 0.00 0.00 99 1009.8
20260509131856 75 0 1.0 2.0 0.00 0.00 0.00 99 1009.8
20260509131827 75 349 1.0 2.0 0.00 0.00 0.00 99 1009.9
20260509131712 75 26 1.0 2.0 0.00 0.00 0.00 99 1009.9
20260509131556 75 49 1.0 2.0 0.00 0.00 0.00 99 1010.0
20260509131457 75 276 1.0 2.0 0.00 0.00 0.00 99 1010.0
20260509131357 75 254 1.0 2.0 0.00 0.00 0.00 99 1010.0
20260509131341 75 260 1.0 2.0 0.00 0.00 0.00 99 1010.0
20260509131257 75 297 1.0 2.0 0.00 0.00 0.00 99 1010.0
20260509131053 75 216 0.0 2.0 0.00 0.00 0.00 99 1010.0
20260509131027 75 280 1.0 2.0 0.00 0.00 0.00 99 1010.0
20260509130935 75 242 1.0 2.0 0.00 0.00 0.00 99 1010.0
20260509130826 75 251 0.0 2.0 0.00 0.00 0.00 99 1010.2
20260509130642 75 244 0.0 2.0 0.00 0.00 0.00 99 1010.2
20260509130457 75 0 0.0 2.0 0.00 0.00 0.00 99 1010.2
20260509130342 75 0 0.0 2.0 0.00 0.00 0.00 99 1010.2
20260509130325 75 262 0.0 2.0 0.00 0.00 0.00 99 1010.2
20260509130227 75 263 0.0 2.0 0.00 0.00 0.00 99 1010.2
20260509130126 75 0 0.0 2.0 0.00 0.00 0.00 99 1010.2
20260509130028 75 259 0.0 2.0 0.00 0.00 0.00 99 1010.2
20260509125926 75 275 0.0 2.0 0.00 0.00 0.00 99 1010.2
20260509125826 75 286 0.0 1.0 0.00 0.00 0.00 99 1010.2
20260509125712 75 228 0.0 1.0 0.00 0.00 0.00 99 1010.1
20260509125612 75 0 0.0 1.0 0.00 0.00 0.00 99 1010.1
20260509125427 75 0 0.0 1.0 0.00 0.00 0.00 99 1010.1
20260509125327 75 163 0.0 1.0 0.00 0.00 0.00 99 1010.1
20260509125311 75 163 0.0 1.0 0.00 0.00 0.00 99 1010.0
20260509125227 75 129 0.0 1.0 0.00 0.00 0.00 99 1010.0
20260509125127 75 152 0.0 1.0 0.00 0.00 0.00 99 1010.0
20260509125027 75 164 0.0 1.0 0.00 0.00 0.00 99 1010.0
20260509124928 75 0 0.0 1.0 0.00 0.00 0.00 99 1010.0
20260509124827 75 0 0.0 1.0 0.00 0.00 0.00 99 1010.0
20260509124810 75 0 0.0 1.0 0.00 0.00 0.00 99 1010.0
20260509124727 75 0 0.0 1.0 0.00 0.00 0.00 99 1010.0
20260509124632 75 279 0.0 1.0 0.00 0.00 0.00 99 1010.0
20260509124527 75 191 0.0 1.0 0.00 0.00 0.00 99 1010.0
20260509124428 75 234 0.0 1.0 0.00 0.00 0.00 99 1010.0
20260509124328 75 161 0.0 1.0 0.00 0.00 0.00 99 1010.0
20260509124312 75 150 0.0 1.0 0.00 0.00 0.00 99 1010.0
20260509124227 75 246 0.0 1.0 0.00 0.00 0.00 99 1010.0
20260509124127 75 270 0.0 1.0 0.00 0.00 0.00 99 1010.1
20260509124037 75 0 0.0 2.0 0.00 0.00 0.00 99 1010.2
20260509124027 75 0 0.0 1.0 0.00 0.00 0.00 99 1010.1
20260509123927 75 207 0.0 1.0 0.00 0.00 0.00 99 1010.2
20260509123916 75 0 0.0 2.0 0.00 0.00 0.00 99 1010.2
20260509123727 75 0 0.0 2.0 0.00 0.00 0.00 99 1010.2
20260509123627 75 0 0.0 2.0 0.00 0.00 0.00 99 1010.2
20260509123527 75 0 0.0 2.0 0.00 0.00 0.00 99 1010.2
20260509123514 75 244 1.0 2.0 0.00 0.00 0.00 99 1010.2
20260509123427 75 84 1.0 2.0 0.00 0.00 0.00 99 1010.2
20260509123402 75 326 1.0 2.0 0.00 0.00 0.00 99 1010.2
20260509123226 75 0 1.0 2.0 0.00 0.00 0.00 99 1010.2
20260509123126 75 0 1.0 2.0 0.00 0.00 0.00 99 1010.2
20260509123026 75 261 1.0 2.0 0.00 0.00 0.00 99 1010.1
20260509122926 74 267 1.0 2.0 0.00 0.00 0.00 99 1010.1
20260509122826 74 247 1.0 2.0 0.00 0.00 0.00 99 1010.1
20260509122756 74 247 1.0 2.0 0.00 0.00 0.00 99 1010.1
20260509122727 74 228 1.0 2.0 0.00 0.00 0.00 99 1010.0
20260509122626 74 282 1.0 2.0 0.00 0.00 0.00 99 1010.0
20260509122526 74 269 1.0 2.0 0.00 0.00 0.00 99 1010.0
20260509122427 74 228 1.0 2.0 0.00 0.00 0.00 99 1010.0
20260509122326 74 260 1.0 2.0 0.00 0.00 0.00 99 1009.9
20260509122256 74 268 1.0 2.0 0.00 0.00 0.00 99 1009.9
20260509122226 74 250 0.0 2.0 0.00 0.00 0.00 99 1009.9
20260509122057 74 255 0.0 1.0 0.00 0.00 0.00 99 1009.9
20260509121959 74 230 0.0 1.0 0.00 0.00 0.00 99 1010.0
20260509121946 74 0 0.0 1.0 0.00 0.00 0.00 99 1010.0
20260509121858 74 256 0.0 1.0 0.00 0.00 0.00 99 1010.0
20260509121827 74 207 0.0 1.0 0.00 0.00 0.00 99 1010.0
20260509121658 74 0 0.0 1.0 0.00 0.00 0.00 99 1010.0
20260509121608 74 0 0.0 1.0 0.00 0.00 0.00 99 1010.0
20260509121443 74 0 0.0 1.0 0.00 0.00 0.00 99 1010.0
20260509121353 74 0 0.0 1.0 0.00 0.00 0.00 99 1010.0
20260509121347 74 0 0.0 1.0 0.00 0.00 0.00 99 1010.0
20260509121127 74 54 0.0 1.0 0.00 0.00 0.00 99 1010.0
20260509121026 74 160 0.0 1.0 0.00 0.00 0.00 99 1010.0
20260509120949 74 0 0.0 1.0 0.00 0.00 0.00 99 1010.0
20260509120926 74 263 0.0 1.0 0.00 0.00 0.00 99 1010.0
20260509120836 74 124 0.0 1.0 0.00 0.00 0.00 99 1010.0
20260509120831 74 0 0.0 1.0 0.00 0.00 0.00 99 1010.0
20260509120613 74 252 0.0 1.0 0.00 0.00 0.00 99 1010.0
20260509120458 74 157 0.0 1.0 0.00 0.00 0.00 99 1010.0
20260509120328 74 235 0.0 1.0 0.00 0.00 0.00 99 1010.0
20260509120229 74 230 0.0 1.0 0.00 0.00 0.00 99 1010.0
20260509120212 74 147 0.0 1.0 0.00 0.00 0.00 99 1009.9
20260509120128 74 164 0.0 1.0 0.00 0.00 0.00 99 1009.9
20260509120027 74 0 0.0 1.0 0.00 0.00 0.00 99 1009.9
20260509115928 74 343 0.0 1.0 0.00 0.00 0.00 99 1009.9
20260509115827 74 101 1.0 1.0 0.00 0.00 0.00 99 1009.9
20260509115713 74 101 1.0 1.0 0.00 0.00 0.00 99 1010.0
20260509115612 74 0 1.0 1.0 0.00 0.00 0.00 99 1010.0
20260509115459 74 3 1.0 2.0 0.00 0.00 0.00 99 1010.0
20260509115358 74 55 1.0 2.0 0.00 0.00 0.00 99 1010.0
20260509115258 74 40 1.0 2.0 0.00 0.00 0.00 99 1010.0
20260509115212 74 46 1.0 2.0 0.00 0.00 0.00 99 1009.9
20260509115158 74 27 1.0 2.0 0.00 0.00 0.00 99 1009.9
20260509115043 74 328 1.0 2.0 0.00 0.00 0.00 99 1009.9
20260509114928 74 8 1.0 2.0 0.00 0.00 0.00 99 1009.9
20260509114827 74 20 1.0 2.0 0.00 0.00 0.00 99 1009.8
20260509114727 74 11 1.0 2.0 0.00 0.00 0.00 99 1009.8
20260509114658 74 348 1.0 2.0 0.00 0.00 0.00 99 1009.8
20260509114627 74 349 1.0 2.0 0.00 0.00 0.00 99 1009.7
20260509114527 74 350 1.0 2.0 0.00 0.00 0.00 99 1009.7
20260509114427 74 3 1.0 2.0 0.00 0.00 0.00 99 1009.7
20260509114327 74 13 1.0 2.0 0.00 0.00 0.00 99 1009.7
20260509114228 74 18 1.0 2.0 0.00 0.00 0.00 99 1009.6
20260509114157 74 6 1.0 2.0 0.00 0.00 0.00 99 1009.6
20260509114127 74 26 0.0 2.0 0.00 0.00 0.00 99 1009.6
20260509114027 74 0 0.0 1.0 0.00 0.00 0.00 99 1009.6
20260509113914 74 0 0.0 1.0 0.00 0.00 0.00 99 1009.6
20260509113813 74 90 0.0 1.0 0.00 0.00 0.00 99 1009.6
20260509113714 74 62 0.0 1.0 0.00 0.00 0.00 99 1009.6
20260509113657 74 90 0.0 1.0 0.00 0.00 0.00 99 1009.6
20260509113613 74 46 0.0 1.0 0.00 0.00 0.00 99 1009.6
20260509113514 74 357 0.0 1.0 0.00 0.00 0.00 99 1009.6
20260509113420 74 0 0.0 1.0 0.00 0.00 0.00 99 1009.7
20260509113358 74 122 0.0 1.0 0.00 0.00 0.00 99 1009.6
20260509113308 74 0 0.0 1.0 0.00 0.00 0.00 99 1009.7
20260509113303 74 0 0.0 1.0 0.00 0.00 0.00 99 1009.7
20260509113059 74 0 0.0 1.0 0.00 0.00 0.00 99 1009.7
20260509112943 74 0 0.0 1.0 0.00 0.00 0.00 99 1009.7
20260509112845 74 177 0.0 1.0 0.00 0.00 0.00 99 1009.7
20260509112744 74 0 0.0 1.0 0.00 0.00 0.00 99 1009.6
20260509112658 74 239 0.0 1.0 0.00 0.00 0.00 99 1009.6
20260509112627 74 0 0.0 1.0 0.00 0.00 0.00 99 1009.6
20260509112514 74 122 0.0 1.0 0.00 0.00 0.00 99 1009.6
20260509112413 74 0 0.0 1.0 0.00 0.00 0.00 99 1009.5
20260509112313 74 14 0.0 1.0 0.00 0.00 0.00 99 1009.5
20260509112213 74 330 0.0 1.0 0.00 0.00 0.00 99 1009.5
20260509112142 74 330 0.0 1.0 0.00 0.00 0.00 99 1009.5
20260509112058 74 16 0.0 1.0 0.00 0.00 0.00 99 1009.5
20260509111959 74 33 0.0 1.0 0.00 0.00 0.00 99 1009.5
20260509111844 74 29 0.0 1.0 0.00 0.00 0.00 99 1009.5
20260509111728 74 0 0.0 1.0 0.00 0.00 0.00 99 1009.5
20260509111642 74 258 0.0 1.0 0.00 0.00 0.00 99 1009.5
20260509111627 74 0 0.0 1.0 0.00 0.00 0.00 99 1009.5
20260509111513 74 0 0.0 1.0 0.00 0.00 0.00 99 1009.6
20260509111359 74 295 0.0 1.0 0.00 0.00 0.00 99 1009.6
20260509111352 74 0 0.0 1.0 0.00 0.00 0.00 99 1009.7
20260509111259 74 0 0.0 1.0 0.00 0.00 0.00 99 1009.7
20260509111233 74 158 0.0 1.0 0.00 0.00 0.00 99 1009.7
20260509111044 74 249 0.0 1.0 0.00 0.00 0.00 99 1009.7
20260509110944 74 280 0.0 1.0 0.00 0.00 0.00 99 1009.7
20260509110827 74 359 0.0 1.0 0.00 0.00 0.00 99 1009.7
20260509110727 74 3 0.0 1.0 0.00 0.00 0.00 99 1009.7
20260509110628 74 349 0.0 1.0 0.00 0.00 0.00 99 1009.7
20260509110528 74 268 0.0 1.0 0.00 0.00 0.00 99 1009.8
20260509110428 74 281 0.0 1.0 0.00 0.00 0.00 99 1009.7
20260509110347 74 320 0.0 1.0 0.00 0.00 0.00 99 1009.7
20260509110327 74 329 0.0 1.0 0.00 0.00 0.00 99 1009.7
20260509110237 74 326 0.0 1.0 0.00 0.00 0.00 99 1009.7
20260509110231 74 320 0.0 1.0 0.00 0.00 0.00 99 1009.7
20260509110027 74 342 0.0 1.0 0.00 0.00 0.00 99 1009.7
20260509105927 74 0 0.0 1.0 0.00 0.00 0.00 99 1009.6
20260509105828 74 328 0.0 1.0 0.00 0.00 0.00 99 1009.5
20260509105728 74 0 0.0 1.0 0.00 0.00 0.00 99 1009.4
20260509105627 74 0 0.0 1.0 0.00 0.00 0.00 99 1009.4
20260509105527 74 226 0.0 1.0 0.00 0.00 0.00 99 1009.3
20260509105415 74 296 0.0 1.0 0.00 0.00 0.00 99 1009.3
20260509105314 74 343 0.0 1.0 0.00 0.00 0.00 99 1009.3
20260509105214 74 17 0.0 1.0 0.00 0.00 0.00 99 1009.3
20260509105113 74 18 0.0 1.0 0.00 0.00 0.00 99 1009.3
20260509105059 74 13 0.0 1.0 0.00 0.00 0.00 99 1009.3
20260509104959 74 0 0.0 1.0 0.00 0.00 0.00 99 1009.3
20260509104859 74 79 0.0 1.0 0.00 0.00 0.00 99 1009.3
20260509104759 74 0 0.0 1.0 0.00 0.00 0.00 99 1009.3
20260509104644 74 0 0.0 1.0 0.00 0.00 0.00 99 1009.3
20260509104613 74 136 0.0 1.0 0.00 0.00 0.00 99 1009.3
20260509104529 74 136 0.0 1.0 0.00 0.00 0.00 99 1009.3
20260509104429 74 279 0.0 1.0 0.00 0.00 0.00 99 1009.3
20260509104328 74 357 0.0 1.0 0.00 0.00 0.00 99 1009.3
20260509104228 74 2 0.0 1.0 0.00 0.00 0.00 99 1009.2
20260509104115 74 350 0.0 1.0 0.00 0.00 0.00 99 1009.1
20260509104013 74 0 0.0 1.0 0.00 0.00 0.00 99 1009.1
20260509103914 74 339 0.0 1.0 0.00 0.00 0.00 99 1009.1
20260509103814 74 275 0.0 1.0 0.00 0.00 0.00 99 1009.1
20260509103714 74 345 0.0 1.0 0.00 0.00 0.00 99 1009.1
20260509103615 74 357 0.0 1.0 0.00 0.00 0.00 99 1009.1
20260509103514 74 342 0.0 1.0 0.00 0.00 0.00 99 1009.1
20260509103359 74 0 0.0 1.0 0.00 0.00 0.00 99 1009.2
20260509103259 74 0 0.0 1.0 0.00 0.00 0.00 99 1009.2
20260509103144 74 91 0.0 1.0 0.00 0.00 0.00 99 1009.2
20260509103058 74 335 0.0 1.0 0.00 0.00 0.00 99 1009.2
20260509103044 74 340 0.0 1.0 0.00 0.00 0.00 99 1009.2
20260509102945 74 318 0.0 1.0 0.00 0.00 0.00 99 1009.2
20260509102844 74 314 0.0 1.0 0.00 0.00 0.00 99 1009.2
20260509102644 74 0 0.0 1.0 0.00 0.00 0.00 99 1009.2
20260509102558 74 326 0.0 1.0 0.00 0.00 0.00 99 1009.3
20260509102530 74 358 0.0 1.0 0.00 0.00 0.00 99 1009.3
20260509102429 74 0 0.0 1.0 0.00 0.00 0.00 99 1009.3
20260509102328 74 263 0.0 1.0 0.00 0.00 0.00 99 1009.3
20260509102228 74 264 0.0 1.0 0.00 0.00 0.00 99 1009.3
20260509102129 74 306 0.0 1.0 0.00 0.00 0.00 99 1009.3
20260509102058 74 306 0.0 1.0 0.00 0.00 0.00 99 1009.3
20260509102028 74 31 0.0 1.0 0.00 0.00 0.00 99 1009.3
20260509101914 74 268 0.0 1.0 0.00 0.00 0.00 99 1009.3
20260509101814 74 107 0.0 1.0 0.00 0.00 0.00 99 1009.4
20260509101715 74 319 0.0 1.0 0.00 0.00 0.00 99 1009.4
20260509101615 74 165 0.0 1.0 0.00 0.00 0.00 99 1009.4
20260509101559 74 261 0.0 1.0 0.00 0.00 0.00 99 1009.4
20260509101514 74 0 0.0 1.0 0.00 0.00 0.00 99 1009.3
20260509101414 74 246 0.0 1.0 0.00 0.00 0.00 99 1009.3
20260509101315 74 0 0.0 1.0 0.00 0.00 0.00 99 1009.2
20260509101200 74 0 1.0 1.0 0.00 0.00 0.00 99 1009.1
20260509101059 74 235 1.0 1.0 0.00 0.00 0.00 99 1009.1
20260509100959 74 85 1.0 1.0 0.00 0.00 0.00 99 1009.0
20260509100900 74 321 1.0 1.0 0.00 0.00 0.00 99 1009.0
20260509100745 74 348 1.0 1.0 0.00 0.00 0.00 99 1009.1
20260509100645 74 31 1.0 1.0 0.00 0.00 0.00 99 1009.1
20260509100545 74 337 0.0 1.0 0.00 0.00 0.00 99 1009.1
20260509100429 74 175 1.0 1.0 0.00 0.00 0.00 99 1009.2
20260509100328 74 313 1.0 1.0 0.00 0.00 0.00 99 1009.2
20260509100228 74 276 1.0 1.0 0.00 0.00 0.00 99 1009.2
20260509100128 74 290 1.0 1.0 0.00 0.00 0.00 99 1009.2
20260509100014 74 241 1.0 2.0 0.00 0.00 0.00 99 1009.2
20260509095915 74 72 1.0 2.0 0.00 0.00 0.00 99 1009.2
20260509095800 74 310 1.0 2.0 0.00 0.00 0.00 99 1009.2
20260509095701 74 324 1.0 2.0 0.00 0.00 0.00 99 1009.1
20260509095600 74 0 1.0 2.0 0.00 0.00 0.00 99 1009.0
20260509095527 74 290 1.0 2.0 0.00 0.00 0.00 99 1009.0
20260509095430 74 322 1.0 2.0 0.00 0.00 0.00 99 1009.0
20260509095330 74 353 1.0 2.0 0.00 0.00 0.00 99 1009.0
20260509095230 74 8 0.0 2.0 0.00 0.00 0.00 99 1009.0
20260509095130 74 6 0.0 2.0 0.00 0.00 0.00 99 1009.0
20260509095013 74 336 0.0 2.0 0.00 0.00 0.00 99 1009.1
20260509094929 74 356 0.0 1.0 0.00 0.00 0.00 99 1009.1
20260509094815 74 0 0.0 1.0 0.00 0.00 0.00 99 1009.1
20260509094700 74 0 0.0 1.0 0.00 0.00 0.00 99 1009.1
20260509094544 74 338 0.0 1.0 0.00 0.00 0.00 99 1009.1
20260509094458 74 312 0.0 1.0 0.00 0.00 0.00 99 1009.1
20260509094429 74 0 0.0 1.0 0.00 0.00 0.00 99 1009.1
20260509094315 74 203 0.0 1.0 0.00 0.00 0.00 99 1009.1
20260509094200 74 248 0.0 1.0 0.00 0.00 0.00 99 1009.1
20260509094030 74 127 0.0 1.0 0.00 0.00 0.00 99 1009.1
20260509093930 74 334 0.0 1.0 0.00 0.00 0.00 99 1009.1
20260509093829 74 298 0.0 1.0 0.00 0.00 0.00 99 1009.0
20260509093728 74 0 0.0 1.0 0.00 0.00 0.00 99 1009.0
20260509093629 74 277 0.0 1.0 0.00 0.00 0.00 99 1009.0
20260509093529 74 254 0.0 1.0 0.00 0.00 0.00 99 1009.0
20260509093429 74 230 0.0 1.0 0.00 0.00 0.00 99 1009.0
20260509093329 74 0 0.0 1.0 0.00 0.00 0.00 99 1009.0
20260509093228 74 0 0.0 1.0 0.00 0.00 0.00 99 1009.0
20260509093129 74 157 0.0 1.0 0.00 0.00 0.00 99 1009.0
20260509093029 74 191 0.0 1.0 0.00 0.00 0.00 99 1008.9
20260509092929 74 264 0.0 1.0 0.00 0.00 0.00 99 1008.9
20260509092828 74 254 0.0 1.0 0.00 0.00 0.00 99 1008.8
20260509092729 74 0 0.0 1.0 0.00 0.00 0.00 99 1008.8
20260509092629 74 0 0.0 1.0 0.00 0.00 0.00 99 1008.7
20260509092529 74 0 0.0 1.0 0.00 0.00 0.00 99 1008.7
20260509092429 74 0 0.0 2.0 0.00 0.00 0.00 99 1008.7
20260509092328 74 3 0.0 2.0 0.00 0.00 0.00 99 1008.7
20260509092229 74 287 0.0 2.0 0.00 0.00 0.00 99 1008.7
20260509092129 74 0 0.0 2.0 0.00 0.00 0.00 99 1008.7
20260509092029 73 254 0.0 2.0 0.00 0.00 0.00 99 1008.7
20260509091915 73 0 0.0 2.0 0.00 0.00 0.00 99 1008.6
20260509091746 73 172 0.0 2.0 0.00 0.00 0.00 99 1008.6
20260509091652 73 281 0.0 2.0 0.00 0.00 0.00 99 1008.6
20260509091630 73 117 1.0 2.0 0.00 0.00 0.00 99 1008.6
20260509091538 73 275 0.0 2.0 0.00 0.00 0.00 99 1008.6
20260509091533 73 281 0.0 2.0 0.00 0.00 0.00 99 1008.6
20260509091329 73 347 0.0 2.0 0.00 0.00 0.00 99 1008.6
20260509091229 73 0 1.0 2.0 0.00 0.00 0.00 99 1008.6
20260509091154 73 265 1.0 2.0 0.00 0.00 0.00 99 1008.6
20260509091129 73 0 1.0 2.0 0.00 0.00 0.00 99 1008.6
20260509091039 73 239 1.0 2.0 0.00 0.00 0.00 99 1008.6
20260509091034 73 265 1.0 2.0 0.00 0.00 0.00 99 1008.6
20260509090816 73 20 1.0 2.0 0.00 0.00 0.00 99 1008.6
20260509090716 73 155 0.0 1.0 0.00 0.00 0.00 99 1008.6
20260509090601 73 359 0.0 1.0 0.00 0.00 0.00 99 1008.7
20260509090421 73 0 0.0 1.0 0.00 0.00 0.00 99 1008.7
20260509090416 73 41 0.0 1.0 0.00 0.00 0.00 99 1008.7
20260509090301 73 254 0.0 1.0 0.00 0.00 0.00 99 1008.7
20260509090146 73 357 0.0 1.0 0.00 0.00 0.00 99 1008.7
20260509090039 73 281 0.0 1.0 0.00 0.00 0.00 99 1008.7
20260509090033 73 0 0.0 1.0 0.00 0.00 0.00 99 1008.7
20260509085830 73 29 0.0 1.0 0.00 0.00 0.00 99 1008.7
20260509085730 73 339 1.0 1.0 0.00 0.00 0.00 99 1008.7
20260509085616 73 327 1.0 2.0 0.00 0.00 0.00 99 1008.6
20260509085517 73 285 1.0 2.0 0.00 0.00 0.00 99 1008.6
20260509085416 73 326 1.0 2.0 0.00 0.00 0.00 99 1008.6
20260509085300 73 328 1.0 2.0 0.00 0.00 0.00 99 1008.5
20260509085201 73 341 1.0 2.0 0.00 0.00 0.00 99 1008.5
20260509085101 73 296 1.0 2.0 0.00 0.00 0.00 99 1008.5
20260509085001 73 270 1.0 2.0 0.00 0.00 0.00 99 1008.4
20260509084915 73 318 1.0 2.0 0.00 0.00 0.00 99 1008.4
20260509084901 73 286 1.0 2.0 0.00 0.00 0.00 99 1008.4
20260509084746 73 316 1.0 2.0 0.00 0.00 0.00 99 1008.4
20260509084646 73 2 1.0 2.0 0.00 0.00 0.00 99 1008.4
20260509084546 73 351 1.0 2.0 0.00 0.00 0.00 99 1008.5
20260509084446 73 275 0.0 1.0 0.00 0.00 0.00 99 1008.5
20260509084414 73 5 0.0 1.0 0.00 0.00 0.00 99 1008.5
20260509084329 73 12 0.0 1.0 0.00 0.00 0.00 99 1008.5
20260509084230 73 29 0.0 1.0 0.00 0.00 0.00 99 1008.5
20260509084130 73 356 0.0 1.0 0.00 0.00 0.00 99 1008.5
20260509084030 73 2 0.0 1.0 0.00 0.00 0.00 99 1008.6
20260509083916 73 27 1.0 1.0 0.00 0.00 0.00 99 1008.6
20260509083816 73 17 1.0 1.0 0.00 0.00 0.00 99 1008.6
20260509083701 73 0 1.0 1.0 0.00 0.00 0.00 99 1008.6
20260509083601 73 355 1.0 1.0 0.00 0.00 0.00 99 1008.6
20260509083501 73 5 1.0 2.0 0.00 0.00 0.00 99 1008.6
20260509083414 73 87 1.0 2.0 0.00 0.00 0.00 99 1008.6
20260509083401 73 87 1.0 2.0 0.00 0.00 0.00 99 1008.6
20260509083301 73 2 1.0 2.0 0.00 0.00 0.00 99 1008.5
20260509083201 73 11 1.0 2.0 0.00 0.00 0.00 99 1008.5
20260509083046 73 32 1.0 2.0 0.00 0.00 0.00 99 1008.5
20260509082935 73 17 1.0 2.0 0.00 0.00 0.00 99 1008.6
20260509082910 73 19 1.0 2.0 0.00 0.00 0.00 99 1008.6
20260509082832 73 348 1.0 2.0 0.00 0.00 0.00 99 1008.6
20260509082731 73 0 0.0 2.0 0.00 0.00 0.00 99 1008.6
20260509082632 73 34 0.0 2.0 0.00 0.00 0.00 99 1008.7
20260509082534 73 104 0.0 2.0 0.00 0.00 0.00 99 1008.7
20260509082430 73 75 0.0 2.0 0.00 0.00 0.00 99 1008.8
20260509082409 73 129 0.0 2.0 0.00 0.00 0.00 99 1008.8
20260509082330 73 254 0.0 2.0 0.00 0.00 0.00 99 1008.8
20260509082230 73 49 0.0 2.0 0.00 0.00 0.00 99 1008.8
20260509082130 73 97 0.0 2.0 0.00 0.00 0.00 99 1008.9
20260509082026 73 96 0.0 2.0 0.00 0.00 0.00 99 1008.9
20260509081925 73 0 0.0 2.0 0.00 0.00 0.00 99 1008.9
20260509081906 73 151 0.0 2.0 0.00 0.00 0.00 99 1008.9
20260509081852 73 36 0.0 2.0 0.00 0.00 0.00 99 1008.9
20260509081820 73 290 0.0 2.0 0.00 0.00 0.00 99 1008.9
20260509081730 73 335 0.0 2.0 0.00 0.00 0.00 99 1008.9
20260509081620 73 153 0.0 2.0 0.00 0.00 0.00 99 1008.9
20260509081519 73 271 0.0 2.0 0.00 0.00 0.00 99 1008.9
20260509081509 73 56 0.0 2.0 0.00 0.00 0.00 99 1008.9
20260509081316 73 0 0.0 2.0 0.00 0.00 0.00 99 1008.9
20260509081211 73 89 0.0 2.0 0.00 0.00 0.00 99 1008.9
20260509081108 73 206 0.0 2.0 0.00 0.00 0.00 99 1008.9
20260509081008 73 0 0.0 1.0 0.00 0.00 0.00 99 1009.0
20260509080904 73 147 0.0 1.0 0.00 0.00 0.00 99 1009.0
20260509080807 73 0 0.0 1.0 0.00 0.00 0.00 99 1009.0
20260509080707 73 84 0.0 2.0 0.00 0.00 0.00 99 1009.0
20260509080608 73 229 0.0 2.0 0.00 0.00 0.00 99 1009.0
20260509080508 73 0 0.0 2.0 0.00 0.00 0.00 99 1009.0
20260509080405 73 0 0.0 2.0 0.00 0.00 0.00 99 1009.0
20260509080026 72 0 0.0 2.0 0.00 0.00 0.00 99 1009.0
20260509075920 72 124 0.0 2.0 0.00 0.00 0.00 99 1009.0
20260509075820 72 0 0.0 2.0 0.00 0.00 0.00 99 1008.9
20260509075720 72 104 0.0 2.0 0.00 0.00 0.00 99 1008.9
20260509075619 72 0 0.0 1.0 0.00 0.00 0.00 99 1009.1
20260509075517 72 60 0.0 1.0 0.00 0.00 0.00 99 1009.1
20260509075417 72 206 0.0 1.0 0.00 0.00 0.00 99 1009.1
20260509075329 72 334 0.0 1.0 0.00 0.00 0.00 99 1009.1
20260509075317 72 0 0.0 1.0 0.00 0.00 0.00 99 1009.1
20260509075214 72 0 0.0 1.0 0.00 0.00 0.00 99 1009.1
20260509075114 73 0 0.0 1.0 0.00 0.00 0.00 99 1009.1
20260509075014 73 283 0.0 1.0 0.00 0.00 0.00 99 1009.2
20260509074914 73 337 0.0 1.0 0.00 0.00 0.00 99 1009.2
20260509074814 73 0 0.0 1.0 0.00 0.00 0.00 99 1009.2
20260509074714 73 307 0.0 1.0 0.00 0.00 0.00 99 1009.2
20260509074611 73 0 0.0 1.0 0.00 0.00 0.00 99 1009.2
20260509074511 73 0 0.0 1.0 0.00 0.00 0.00 99 1009.3
20260509074411 72 0 0.0 1.0 0.00 0.00 0.00 99 1009.3
20260509074329 72 0 0.0 1.0 0.00 0.00 0.00 99 1009.3
20260509074308 72 166 0.0 1.0 0.00 0.00 0.00 99 1009.3
20260509074208 72 180 0.0 1.0 0.00 0.00 0.00 99 1009.4
20260509074108 72 0 0.0 1.0 0.00 0.00 0.00 99 1009.4
20260509074002 72 260 0.0 1.0 0.00 0.00 0.00 99 1009.5
20260509073902 72 0 0.0 1.0 0.00 0.00 0.00 99 1009.5
20260509073825 72 0 0.0 1.0 0.00 0.00 0.00 99 1009.5
20260509073803 72 189 0.0 1.0 0.00 0.00 0.00 99 1009.5
20260509073702 72 0 0.0 1.0 0.00 0.00 0.00 99 1009.5
20260509073559 72 0 0.0 1.0 0.00 0.00 0.00 99 1009.5
20260509073457 72 259 0.0 1.0 0.00 0.00 0.00 99 1009.4
20260509073356 72 0 0.0 1.0 0.00 0.00 0.00 99 1009.4
20260509073325 72 37 0.0 1.0 0.00 0.00 0.00 99 1009.4
20260509073253 72 0 0.0 1.0 0.00 0.00 0.00 99 1009.4
20260509073154 72 300 0.0 1.0 0.00 0.00 0.00 99 1009.4
20260509073047 72 74 0.0 1.0 0.00 0.00 0.00 99 1009.4
20260509072944 72 0 0.0 1.0 0.00 0.00 0.00 99 1009.4
20260509072825 72 0 0.0 1.0 0.00 0.00 0.00 99 1009.5
20260509072744 72 163 0.0 1.0 0.00 0.00 0.00 99 1009.5
20260509072641 72 0 0.0 2.0 0.00 0.00 0.00 99 1009.5
20260509072542 72 317 0.0 2.0 0.00 0.00 0.00 99 1009.5
20260509072439 72 316 0.0 2.0 0.00 0.00 0.00 99 1009.6
20260509072338 72 0 0.0 2.0 0.00 0.00 0.00 99 1009.6
20260509072323 72 338 0.0 2.0 0.00 0.00 0.00 99 1009.6
20260509072236 72 186 0.0 2.0 0.00 0.00 0.00 99 1009.6
20260509072135 72 0 0.0 2.0 0.00 0.00 0.00 99 1009.6
20260509072035 72 0 0.0 2.0 0.00 0.00 0.00 99 1009.6
20260509071935 72 291 0.0 2.0 0.00 0.00 0.00 99 1009.5
20260509071833 72 340 0.0 2.0 0.00 0.00 0.00 99 1009.5
20260509071823 73 328 0.0 2.0 0.00 0.00 0.00 99 1009.5
20260509071731 73 306 0.0 2.0 0.00 0.00 0.00 99 1009.5
20260509071631 73 311 0.0 1.0 0.00 0.00 0.00 99 1009.5
20260509071531 73 349 0.0 1.0 0.00 0.00 0.00 99 1009.4
20260509071431 73 0 0.0 1.0 0.00 0.00 0.00 99 1009.4
20260509071323 73 0 0.0 1.0 0.00 0.00 0.00 99 1009.4
20260509071227 73 239 0.0 1.0 0.00 0.00 0.00 99 1009.4
20260509071126 73 145 0.0 2.0 0.00 0.00 0.00 99 1009.4
20260509071024 73 357 0.0 2.0 0.00 0.00 0.00 99 1009.4
20260509070924 73 0 0.0 2.0 0.00 0.00 0.00 99 1009.5
20260509070821 73 272 0.0 2.0 0.00 0.00 0.00 99 1009.5
20260509070721 73 0 0.0 2.0 0.00 0.00 0.00 99 1009.4
20260509070612 73 29 0.0 2.0 0.00 0.00 0.00 99 1009.4
20260509070512 73 0 0.0 2.0 0.00 0.00 0.00 99 1009.4
20260509070411 73 0 0.0 2.0 0.00 0.00 0.00 99 1009.4
20260509070311 73 0 0.0 2.0 0.00 0.00 0.00 99 1009.4
20260509070212 73 0 0.0 2.0 0.00 0.00 0.00 99 1009.4
20260509070109 73 110 0.0 2.0 0.00 0.00 0.00 99 1009.4
20260509070009 73 302 0.0 1.0 0.00 0.00 0.00 99 1009.4
20260509065913 73 272 0.0 1.0 0.00 0.00 0.00 99 1009.4
20260509065909 73 284 0.0 1.0 0.00 0.00 0.00 99 1009.4
20260509065904 73 0 0.0 1.0 0.00 0.00 0.00 99 1009.4
20260509065656 73 71 0.0 1.0 0.00 0.00 0.00 99 1009.4
20260509065554 73 0 0.0 1.0 0.00 0.00 0.00 99 1009.4
20260509065534 73 0 0.0 1.0 0.00 0.00 0.00 99 1009.3
20260509065451 73 0 0.0 1.0 0.00 0.00 0.00 99 1009.4
20260509065419 73 0 0.0 1.0 0.00 0.00 0.00 99 1009.4
20260509065251 73 0 0.0 1.0 0.00 0.00 0.00 99 1009.3
20260509065145 73 161 0.0 1.0 0.00 0.00 0.00 99 1009.3
20260509065044 73 74 0.0 1.0 0.00 0.00 0.00 99 1009.3
20260509065032 73 55 0.0 1.0 0.00 0.00 0.00 99 1009.3
20260509064942 73 0 0.0 1.0 0.00 0.00 0.00 99 1009.3
20260509064916 73 67 0.0 1.0 0.00 0.00 0.00 99 1009.3
20260509064739 73 58 0.0 1.0 0.00 0.00 0.00 99 1009.3
20260509064636 73 108 0.0 1.0 0.00 0.00 0.00 99 1009.4
20260509064533 73 119 0.0 1.0 0.00 0.00 0.00 99 1009.4
20260509064431 73 0 0.0 1.0 0.00 0.00 0.00 99 1009.4
20260509064311 73 0 0.0 2.0 0.00 0.00 0.00 99 1009.4
20260509064227 73 0 0.0 2.0 0.00 0.00 0.00 99 1009.4
20260509064127 73 45 0.0 2.0 0.00 0.00 0.00 99 1009.4
20260509064027 73 257 0.0 2.0 0.00 0.00 0.00 99 1009.4
20260509063927 73 309 0.0 2.0 0.00 0.00 0.00 99 1009.5
20260509063810 73 0 0.0 2.0 0.00 0.00 0.00 99 1009.5
20260509063727 73 0 0.0 2.0 0.00 0.00 0.00 99 1009.5
20260509063627 73 0 0.0 2.0 0.00 0.00 0.00 99 1009.5
20260509063524 73 0 0.0 2.0 0.00 0.00 0.00 99 1009.5
20260509063418 73 238 0.0 1.0 0.00 0.00 0.00 99 1009.5
20260509063311 73 0 0.0 1.0 0.00 0.00 0.00 99 1009.5
20260509063218 73 0 0.0 1.0 0.00 0.00 0.00 99 1009.6
20260509063119 73 202 0.0 2.0 0.00 0.00 0.00 99 1009.6
20260509063018 73 204 0.0 2.0 0.00 0.00 0.00 99 1009.6
20260509062916 73 0 0.0 2.0 0.00 0.00 0.00 99 1009.7
20260509062817 73 0 0.0 2.0 0.00 0.00 0.00 99 1009.7
20260509062811 73 51 0.0 2.0 0.00 0.00 0.00 99 1009.7
20260509062715 73 163 0.0 2.0 0.00 0.00 0.00 99 1009.7
20260509062612 73 0 0.0 2.0 0.00 0.00 0.00 99 1009.7
20260509062512 73 0 0.0 2.0 0.00 0.00 0.00 99 1009.7
20260509062407 73 254 0.0 2.0 0.00 0.00 0.00 99 1009.6
20260509062311 73 0 0.0 2.0 0.00 0.00 0.00 99 1009.6
20260509062254 73 0 0.0 2.0 0.00 0.00 0.00 99 1009.6
20260509062154 73 220 0.0 2.0 0.00 0.00 0.00 99 1009.6
20260509062051 73 146 0.0 1.0 0.00 0.00 0.00 99 1009.6
20260509062036 73 327 0.0 1.0 0.00 0.00 0.00 99 1009.6
20260509061946 73 295 0.0 1.0 0.00 0.00 0.00 99 1009.6
20260509061917 73 0 0.0 1.0 0.00 0.00 0.00 99 1009.6
20260509061733 73 7 0.0 1.0 0.00 0.00 0.00 99 1009.6
20260509061634 73 343 0.0 1.0 0.00 0.00 0.00 99 1009.6
20260509061534 73 154 0.0 1.0 0.00 0.00 0.00 99 1009.5
20260509061432 73 0 0.0 1.0 0.00 0.00 0.00 99 1009.5
20260509061319 73 353 0.0 1.0 0.00 0.00 0.00 99 1009.5
20260509061311 73 316 0.0 1.0 0.00 0.00 0.00 99 1009.5
20260509061218 73 331 0.0 1.0 0.00 0.00 0.00 99 1009.5
20260509061115 74 0 0.0 1.0 0.00 0.00 0.00 99 1009.4
20260509061016 74 256 0.0 1.0 0.00 0.00 0.00 99 1009.4
20260509060913 74 352 0.0 1.0 0.00 0.00 0.00 99 1009.4
20260509060812 74 25 0.0 1.0 0.00 0.00 0.00 99 1009.4
20260509060713 74 348 0.0 1.0 0.00 0.00 0.00 99 1009.4
20260509060612 74 0 0.0 1.0 0.00 0.00 0.00 99 1009.5
20260509060512 74 0 0.0 1.0 0.00 0.00 0.00 99 1009.5
20260509060410 74 298 0.0 1.0 0.00 0.00 0.00 99 1009.5
20260509060313 74 264 0.0 1.0 0.00 0.00 0.00 99 1009.5
20260509060309 74 0 0.0 1.0 0.00 0.00 0.00 99 1009.5
20260509060210 74 65 0.0 1.0 0.00 0.00 0.00 99 1009.4
20260509060100 74 217 0.0 1.0 0.00 0.00 0.00 99 1009.4
20260509060000 74 314 0.0 1.0 0.00 0.00 0.00 99 1009.4
20260509055858 74 63 0.0 1.0 0.00 0.00 0.00 99 1009.4
20260509055809 74 250 0.0 1.0 0.00 0.00 0.00 99 1009.5
20260509055757 74 148 0.0 1.0 0.00 0.00 0.00 99 1009.5
20260509055657 74 0 0.0 1.0 0.00 0.00 0.00 99 1009.5
20260509055557 74 1 0.0 1.0 0.00 0.00 0.00 99 1009.5
20260509055457 74 0 0.0 2.0 0.00 0.00 0.00 99 1009.5
20260509055356 74 39 0.0 2.0 0.00 0.00 0.00 99 1009.5
20260509055307 74 160 0.0 2.0 0.00 0.00 0.00 99 1009.5
20260509055252 74 351 0.0 2.0 0.00 0.00 0.00 99 1009.5
20260509055152 74 4 0.0 2.0 0.00 0.00 0.00 99 1009.5
20260509055052 74 134 0.0 2.0 0.00 0.00 0.00 99 1009.5
20260509054949 74 327 0.0 2.0 0.00 0.00 0.00 99 1009.5
20260509054843 74 83 0.0 2.0 0.00 0.00 0.00 99 1009.5
20260509054806 74 43 0.0 2.0 0.00 0.00 0.00 99 1009.5
20260509054743 74 9 0.0 2.0 0.00 0.00 0.00 99 1009.5
20260509054643 74 56 0.0 2.0 0.00 0.00 0.00 99 1009.5
20260509054543 74 82 0.0 2.0 0.00 0.00 0.00 99 1009.6
20260509054442 74 0 0.0 1.0 0.00 0.00 0.00 99 1009.6
20260509054342 74 159 0.0 1.0 0.00 0.00 0.00 99 1009.6
20260509054306 74 99 0.0 1.0 0.00 0.00 0.00 99 1009.6
20260509054243 74 223 0.0 1.0 0.00 0.00 0.00 99 1009.6
20260509054142 74 0 0.0 1.0 0.00 0.00 0.00 99 1009.5
20260509054042 74 0 0.0 1.0 0.00 0.00 0.00 99 1009.6
20260509053941 74 266 0.0 1.0 0.00 0.00 0.00 99 1009.6
20260509053840 74 19 0.0 1.0 0.00 0.00 0.00 99 1009.6
20260509053805 74 154 0.0 2.0 0.00 0.00 0.00 99 1009.6
20260509053737 74 123 0.0 2.0 0.00 0.00 0.00 99 1009.6
20260509053634 74 63 1.0 2.0 0.00 0.00 0.00 99 1009.6
20260509053534 74 0 1.0 2.0 0.00 0.00 0.00 99 1009.5
20260509053432 74 117 1.0 2.0 0.00 0.00 0.00 99 1009.5
20260509053333 74 349 1.0 2.0 0.00 0.00 0.00 99 1009.5
20260509053303 74 101 1.0 4.0 0.00 0.00 0.00 99 1009.5
20260509053233 74 42 1.0 4.0 0.00 0.00 0.00 99 1009.6
20260509053131 74 43 1.0 4.0 0.00 0.00 0.00 99 1009.6
20260509053032 74 55 1.0 4.0 0.00 0.00 0.00 99 1009.6
20260509052931 74 40 1.0 4.0 0.00 0.00 0.00 99 1009.6
20260509052832 74 52 2.0 4.0 0.00 0.00 0.00 99 1009.6
20260509052804 74 13 2.0 4.0 0.00 0.00 0.00 99 1009.6
20260509052731 74 88 2.0 4.0 0.00 0.00 0.00 99 1009.6
20260509052631 74 92 2.0 4.0 0.00 0.00 0.00 99 1009.6
20260509052528 74 75 2.0 4.0 0.00 0.00 0.00 99 1009.6
20260509052428 74 66 2.0 4.0 0.00 0.00 0.00 99 1009.7
20260509052328 74 81 2.0 4.0 0.00 0.00 0.00 99 1009.7
20260509052300 74 76 2.0 4.0 0.00 0.00 0.00 99 1009.7
20260509052228 75 85 1.0 3.0 0.00 0.00 0.00 99 1009.7
20260509052128 75 81 1.0 3.0 0.00 0.00 0.00 99 1009.7
20260509052028 75 78 1.0 3.0 0.00 0.00 0.00 99 1009.7
20260509051928 75 88 1.0 3.0 0.00 0.00 0.00 99 1009.8
20260509051828 75 78 1.0 3.0 0.00 0.00 0.00 99 1009.8
20260509051800 75 77 1.0 3.0 0.00 0.00 0.00 99 1009.8
20260509051725 75 92 1.0 3.0 0.00 0.00 0.00 99 1009.8
20260509051625 75 64 1.0 3.0 0.00 0.00 0.00 99 1009.8
20260509051525 75 211 1.0 3.0 0.00 0.00 0.00 99 1009.8
20260509051423 75 110 1.0 3.0 0.00 0.00 0.00 99 1009.8
20260509051323 75 62 1.0 3.0 0.00 0.00 0.00 99 1009.8
20260509051300 75 92 1.0 3.0 0.00 0.00 0.00 99 1009.8
20260509051222 75 114 1.0 3.0 0.00 0.00 0.00 99 1009.8
20260509051120 75 72 1.0 3.0 0.00 0.00 0.00 99 1009.8
20260509051022 75 70 1.0 3.0 0.00 0.00 0.00 99 1009.8
20260509051016 75 0 1.0 3.0 0.00 0.00 0.00 99 1009.8
20260509050917 75 0 1.0 3.0 0.00 0.00 0.00 99 1009.8
20260509050908 75 78 1.0 3.0 0.00 0.00 0.00 99 1009.8
20260509050714 75 77 1.0 3.0 0.00 0.00 0.00 99 1009.8
20260509050614 75 96 1.0 3.0 0.00 0.00 0.00 99 1009.8
20260509050527 75 1 1.0 3.0 0.00 0.00 0.00 99 1009.9
20260509050508 75 344 1.0 3.0 0.00 0.00 0.00 99 1009.9
20260509050408 75 64 1.0 3.0 0.00 0.00 0.00 99 1009.9
20260509050402 75 61 1.0 3.0 0.00 0.00 0.00 99 1009.9
20260509050207 75 261 1.0 3.0 0.00 0.00 0.00 99 1009.9
20260509050108 75 85 1.0 3.0 0.00 0.00 0.00 99 1009.9
20260509050008 75 90 1.0 4.0 0.00 0.00 0.00 99 1009.9
20260509045905 75 80 1.0 4.0 0.00 0.00 0.00 99 1009.9
20260509045805 75 0 2.0 4.0 0.00 0.00 0.00 99 1009.9
20260509045754 75 125 2.0 4.0 0.00 0.00 0.00 99 1009.9
20260509045705 75 93 2.0 4.0 0.00 0.00 0.00 99 1009.8
20260509045604 75 97 2.0 4.0 0.00 0.00 0.00 99 1009.8
20260509045502 75 86 2.0 4.0 0.00 0.00 0.00 99 1009.8
20260509045356 75 88 2.0 4.0 0.00 0.00 0.00 99 1009.8
20260509045256 75 81 2.0 4.0 0.00 0.00 0.00 99 1009.8
20260509045249 75 95 2.0 4.0 0.00 0.00 0.00 99 1009.8
20260509045153 75 78 2.0 4.0 0.00 0.00 0.00 99 1009.8
20260509045050 75 105 2.0 4.0 0.00 0.00 0.00 99 1009.8
20260509044947 75 89 2.0 3.0 0.00 0.00 0.00 99 1009.9
20260509044840 75 113 2.0 3.0 0.00 0.00 0.00 99 1009.9
20260509044748 75 79 2.0 3.0 0.00 0.00 0.00 99 1009.9
20260509044737 75 87 2.0 3.0 0.00 0.00 0.00 99 1009.9
20260509044634 75 83 2.0 3.0 0.00 0.00 0.00 99 1009.9
20260509044536 75 67 1.0 3.0 0.00 0.00 0.00 99 1010.1
20260509044513 75 87 1.0 3.0 0.00 0.00 0.00 99 1010.1
20260509044435 75 71 1.0 3.0 0.00 0.00 0.00 99 1010.1
20260509044351 75 74 1.0 3.0 0.00 0.00 0.00 99 1010.1
20260509044235 75 111 1.0 3.0 0.00 0.00 0.00 99 1010.1
20260509044132 75 75 1.0 3.0 0.00 0.00 0.00 99 1010.1
20260509044032 75 103 1.0 3.0 0.00 0.00 0.00 99 1010.1
20260509043932 75 103 1.0 3.0 0.00 0.00 0.00 99 1010.1
20260509043832 75 80 1.0 4.0 0.00 0.00 0.00 99 1010.1
20260509043746 75 95 1.0 4.0 0.00 0.00 0.00 99 1010.1
20260509043732 75 45 1.0 4.0 0.00 0.00 0.00 99 1010.1
20260509043619 75 0 2.0 4.0 0.00 0.00 0.00 99 1010.1
20260509043520 75 98 2.0 4.0 0.00 0.00 0.00 99 1010.1
20260509043420 75 76 2.0 4.0 0.00 0.00 0.00 99 1010.1
20260509043320 75 101 2.0 4.0 0.00 0.00 0.00 99 1010.0
20260509043246 75 75 2.0 4.0 0.00 0.00 0.00 99 1010.0
20260509043220 75 110 2.0 4.0 0.00 0.00 0.00 99 1010.0
20260509043120 75 195 2.0 4.0 0.00 0.00 0.00 99 1010.0
20260509043020 75 82 2.0 4.0 0.00 0.00 0.00 99 1010.0
20260509042920 75 74 2.0 4.0 0.00 0.00 0.00 99 1010.0
20260509042817 75 112 2.0 4.0 0.00 0.00 0.00 99 1010.0
20260509042746 75 97 2.0 4.0 0.00 0.00 0.00 99 1010.0
20260509042717 75 114 2.0 4.0 0.00 0.00 0.00 99 1010.0
20260509042614 75 88 2.0 4.0 0.00 0.00 0.00 99 1010.0
20260509042514 75 89 2.0 4.0 0.00 0.00 0.00 99 1010.0
20260509042414 75 86 2.0 4.0 0.00 0.00 0.00 99 1010.0
20260509042314 75 128 2.0 4.0 0.00 0.00 0.00 99 1010.0
20260509042246 75 114 2.0 4.0 0.00 0.00 0.00 99 1010.0
20260509042211 75 245 2.0 4.0 0.00 0.00 0.00 99 1010.0
20260509042109 75 86 1.0 4.0 0.00 0.00 0.00 99 1010.0
20260509042008 75 114 1.0 4.0 0.00 0.00 0.00 99 1010.0
20260509041908 75 97 1.0 4.0 0.00 0.00 0.00 99 1010.0
20260509041809 75 102 1.0 4.0 0.00 0.00 0.00 99 1010.0
20260509041743 75 93 1.0 4.0 0.00 0.00 0.00 99 1010.0
20260509041709 75 112 1.0 4.0 0.00 0.00 0.00 99 1010.0
20260509041608 75 94 1.0 4.0 0.00 0.00 0.00 99 1010.0
20260509041505 75 99 1.0 4.0 0.00 0.00 0.00 99 1010.0
20260509041402 75 113 1.0 4.0 0.00 0.00 0.00 99 1010.0
20260509041259 75 78 2.0 4.0 0.00 0.00 0.00 99 1010.0
20260509041243 75 0 2.0 4.0 0.00 0.00 0.00 99 1010.0
20260509041156 75 97 2.0 4.0 0.00 0.00 0.00 99 1010.0
20260509041054 75 56 2.0 4.0 0.00 0.00 0.00 99 1010.0
20260509041006 75 94 2.0 4.0 0.00 0.00 0.00 99 1009.9
20260509040951 75 165 2.0 4.0 0.00 0.00 0.00 99 1010.0
20260509040854 75 92 2.0 4.0 0.00 0.00 0.00 99 1009.9
20260509040849 75 76 2.0 4.0 0.00 0.00 0.00 99 1009.9
20260509040651 75 105 2.0 4.0 0.00 0.00 0.00 99 1009.9
20260509040551 75 100 1.0 4.0 0.00 0.00 0.00 99 1009.9
20260509040450 75 76 1.0 4.0 0.00 0.00 0.00 99 1009.9
20260509040351 75 95 1.0 4.0 0.00 0.00 0.00 99 1009.9
20260509040251 75 67 1.0 4.0 0.00 0.00 0.00 99 1010.0
20260509040240 75 79 1.0 4.0 0.00 0.00 0.00 99 1010.0
20260509040147 75 92 1.0 4.0 0.00 0.00 0.00 99 1010.0
20260509040047 75 100 1.0 4.0 0.00 0.00 0.00 99 1010.0
20260509035947 75 70 1.0 4.0 0.00 0.00 0.00 99 1010.0
20260509035848 75 61 1.0 4.0 0.00 0.00 0.00 99 1010.1
20260509035747 75 91 1.0 4.0 0.00 0.00 0.00 99 1010.0
20260509035740 75 57 1.0 4.0 0.00 0.00 0.00 99 1010.0
20260509035647 75 80 1.0 4.0 0.00 0.00 0.00 99 1010.0
20260509035542 75 75 1.0 4.0 0.00 0.00 0.00 99 1010.0
20260509035439 75 119 2.0 4.0 0.00 0.00 0.00 99 1010.0
20260509035335 75 61 2.0 4.0 0.00 0.00 0.00 99 1009.9
20260509035240 75 59 2.0 4.0 0.00 0.00 0.00 99 1009.9
20260509035233 75 66 2.0 4.0 0.00 0.00 0.00 99 1009.9
20260509035134 75 122 2.0 4.0 0.00 0.00 0.00 99 1009.8
20260509035027 75 86 2.0 4.0 0.00 0.00 0.00 98 1009.7
20260509034920 75 105 2.0 4.0 0.00 0.00 0.00 98 1009.6
20260509034821 75 73 2.0 4.0 0.00 0.00 0.00 98 1009.6
20260509034741 75 71 2.0 4.0 0.00 0.00 0.00 98 1009.6
20260509034718 75 0 2.0 4.0 0.00 0.00 0.00 98 1009.6
20260509034615 75 55 2.0 4.0 0.00 0.00 0.00 98 1009.6
20260509034515 75 115 2.0 4.0 0.00 0.00 0.00 98 1009.7
20260509034415 75 69 2.0 4.0 0.00 0.00 0.00 98 1009.7
20260509034303 75 58 2.0 4.0 0.00 0.00 0.00 98 1009.7
20260509034238 75 88 2.0 4.0 0.00 0.00 0.00 98 1009.7
20260509034203 75 67 2.0 4.0 0.00 0.00 0.00 98 1009.7
20260509034103 75 99 2.0 4.0 0.00 0.00 0.00 98 1009.7
20260509034002 75 128 2.0 4.0 0.00 0.00 0.00 98 1009.7
20260509033859 75 75 2.0 4.0 0.00 0.00 0.00 98 1009.6
20260509033800 75 65 2.0 4.0 0.00 0.00 0.00 98 1009.6
20260509033738 75 127 2.0 4.0 0.00 0.00 0.00 98 1009.6
20260509033653 75 82 1.0 4.0 0.00 0.00 0.00 98 1009.6
20260509033551 75 85 1.0 4.0 0.00 0.00 0.00 98 1009.5
20260509033504 75 75 1.0 4.0 0.00 0.00 0.00 98 1009.6
20260509033450 75 105 1.0 4.0 0.00 0.00 0.00 98 1009.5
20260509033349 75 93 1.0 4.0 0.00 0.00 0.00 98 1009.5
20260509033344 75 65 1.0 4.0 0.00 0.00 0.00 98 1009.6
20260509033148 75 102 1.0 4.0 0.00 0.00 0.00 98 1009.6
20260509033045 75 101 1.0 4.0 0.00 0.00 0.00 98 1009.6
20260509032945 75 105 1.0 4.0 0.00 0.00 0.00 98 1009.7
20260509032845 75 34 1.0 4.0 0.00 0.00 0.00 98 1009.7
20260509032745 75 41 1.0 4.0 0.00 0.00 0.00 98 1009.7
20260509032738 75 85 1.0 4.0 0.00 0.00 0.00 98 1009.7
20260509032645 75 14 1.0 4.0 0.00 0.00 0.00 98 1009.5
20260509032545 75 91 1.0 4.0 0.00 0.00 0.00 98 1009.5
20260509032445 75 0 1.0 3.0 0.00 0.00 0.00 98 1009.5
20260509032336 75 53 1.0 3.0 0.00 0.00 0.00 98 1009.4
20260509032236 75 53 1.0 3.0 0.00 0.00 0.00 98 1009.4
20260509032136 75 116 1.0 3.0 0.00 0.00 0.00 98 1009.4
20260509032036 75 124 1.0 4.0 0.00 0.00 0.00 98 1009.4
20260509032001 75 42 2.0 4.0 0.00 0.00 0.00 98 1009.5
20260509031936 75 88 1.0 4.0 0.00 0.00 0.00 98 1009.4
20260509031847 75 48 1.0 4.0 0.00 0.00 0.00 98 1009.4
20260509031841 75 42 2.0 4.0 0.00 0.00 0.00 98 1009.5
20260509031637 75 57 2.0 4.0 0.00 0.00 0.00 98 1009.5
20260509031537 75 49 2.0 4.0 0.00 0.00 0.00 98 1009.5
20260509031437 75 294 2.0 4.0 0.00 0.00 0.00 98 1009.4
20260509031336 75 354 2.0 4.0 0.00 0.00 0.00 98 1009.4
20260509031237 75 326 2.0 4.0 0.00 0.00 0.00 98 1009.4
20260509031218 75 28 1.0 4.0 0.00 0.00 0.00 98 1009.1
20260509031137 75 35 2.0 4.0 0.00 0.00 0.00 98 1009.4
20260509031105 75 22 2.0 4.0 0.00 0.00 0.00 98 1009.3
20260509030937 75 29 1.0 4.0 0.00 0.00 0.00 98 1009.3
20260509030846 75 19 1.0 4.0 0.00 0.00 0.00 98 1009.2
20260509030841 75 28 1.0 4.0 0.00 0.00 0.00 98 1009.1
20260509030634 75 22 1.0 4.0 0.00 0.00 0.00 98 1009.1
20260509030534 75 65 1.0 4.0 0.00 0.00 0.00 98 1009.1
20260509030427 75 16 1.0 4.0 0.00 0.00 0.00 98 1009.1
20260509030327 75 57 1.0 4.0 0.00 0.00 0.00 98 1009.1
20260509030235 75 113 1.0 4.0 0.00 0.00 0.00 98 1009.1
20260509030228 75 109 1.0 4.0 0.00 0.00 0.00 98 1009.1
20260509030124 75 63 1.0 3.0 0.00 0.00 0.00 98 1009.2
20260509030025 75 49 2.0 3.0 0.00 0.00 0.00 98 1009.2
20260509025922 75 143 2.0 3.0 0.00 0.00 0.00 98 1009.2
20260509025822 75 48 2.0 3.0 0.00 0.00 0.00 98 1009.1
20260509025735 75 65 2.0 3.0 0.00 0.00 0.00 98 1009.1
20260509025721 75 44 2.0 3.0 0.00 0.00 0.00 98 1009.1
20260509025619 75 91 2.0 3.0 0.00 0.00 0.00 98 1009.1
20260509025519 75 86 2.0 3.0 0.00 0.00 0.00 98 1009.1
20260509025418 75 251 2.0 3.0 0.00 0.00 0.00 98 1009.1
20260509025319 75 57 1.0 3.0 0.00 0.00 0.00 98 1009.1
20260509025235 75 27 1.0 3.0 0.00 0.00 0.00 98 1009.1
20260509025219 75 22 1.0 3.0 0.00 0.00 0.00 98 1009.2
20260509025119 75 56 1.0 3.0 0.00 0.00 0.00 98 1009.2
20260509025015 75 64 1.0 3.0 0.00 0.00 0.00 98 1009.2
20260509024909 75 65 1.0 3.0 0.00 0.00 0.00 98 1009.4
20260509024807 75 58 1.0 3.0 0.00 0.00 0.00 98 1009.4
20260509024734 75 32 1.0 3.0 0.00 0.00 0.00 98 1009.5
20260509024704 75 55 1.0 3.0 0.00 0.00 0.00 98 1009.5
20260509024601 75 104 1.0 3.0 0.00 0.00 0.00 98 1009.5
20260509024501 75 130 1.0 5.0 0.00 0.00 0.00 98 1009.5
20260509024401 75 122 1.0 5.0 0.00 0.00 0.00 98 1009.4
20260509024258 75 343 1.0 5.0 0.00 0.00 0.00 98 1009.3
20260509024232 75 0 1.0 5.0 0.00 0.00 0.00 98 1009.2
20260509024158 75 17 1.0 5.0 0.00 0.00 0.00 98 1009.2
20260509024058 75 77 2.0 5.0 0.00 0.00 0.00 98 1009.1
20260509023958 75 81 2.0 5.0 0.00 0.00 0.00 98 1009.0
20260509023855 75 71 2.0 5.0 0.00 0.00 0.00 98 1009.0
20260509023752 75 90 1.0 5.0 0.00 0.00 0.00 98 1009.0
20260509023727 75 98 1.0 5.0 0.00 0.00 0.00 98 1008.9
20260509023651 75 0 2.0 5.0 0.00 0.00 0.00 98 1008.9
20260509023549 75 85 2.0 5.0 0.00 0.00 0.00 98 1008.8
20260509023445 75 0 2.0 4.0 0.00 0.00 0.00 98 1008.8
20260509023345 75 202 2.0 4.0 0.00 0.00 0.00 98 1008.7
20260509023245 75 72 2.0 4.0 0.00 0.00 0.00 98 1008.7
20260509023220 75 37 2.0 4.0 0.00 0.00 0.00 98 1008.7
20260509023143 75 60 2.0 4.0 0.00 0.00 0.00 98 1008.7
20260509023043 75 66 2.0 4.0 0.00 0.00 0.00 98 1008.7
20260509022940 75 37 2.0 4.0 0.00 0.00 0.00 98 1008.8
20260509022840 75 42 2.0 4.0 0.00 0.00 0.00 98 1008.8
20260509022740 75 27 2.0 4.0 0.00 0.00 0.00 98 1008.9
20260509022720 75 49 2.0 4.0 0.00 0.00 0.00 98 1008.9
20260509022640 75 94 2.0 4.0 0.00 0.00 0.00 98 1008.9
20260509022540 75 71 2.0 4.0 0.00 0.00 0.00 98 1008.9
20260509022440 75 20 2.0 4.0 0.00 0.00 0.00 98 1008.8
20260509022345 75 107 2.0 4.0 0.00 0.00 0.00 98 1008.8
20260509022241 75 33 1.0 4.0 0.00 0.00 0.00 98 1008.8
20260509022221 75 106 1.0 4.0 0.00 0.00 0.00 98 1008.8
20260509022140 75 96 1.0 4.0 0.00 0.00 0.00 98 1008.8
20260509022037 75 79 1.0 4.0 0.00 0.00 0.00 98 1008.8
20260509021937 75 105 1.0 3.0 0.00 0.00 0.00 98 1008.8
20260509021837 75 68 1.0 3.0 0.00 0.00 0.00 98 1008.9
20260509021737 75 67 1.0 3.0 0.00 0.00 0.00 98 1009.1
20260509021719 75 134 1.0 3.0 0.00 0.00 0.00 98 1009.0
20260509021637 75 108 1.0 3.0 0.00 0.00 0.00 98 1009.0
20260509021537 75 69 1.0 3.0 0.00 0.00 0.00 98 1009.0
20260509021437 75 0 1.0 3.0 0.00 0.00 0.00 98 1009.0
20260509021337 75 0 1.0 3.0 0.00 0.00 0.00 98 1009.0
20260509021231 75 23 1.0 3.0 0.00 0.00 0.00 98 1009.0
20260509021215 75 96 1.0 3.0 0.00 0.00 0.00 98 1009.0
20260509021132 75 1 1.0 3.0 0.00 0.00 0.00 98 1008.9
20260509021031 75 46 1.0 4.0 0.00 0.00 0.00 98 1008.9
20260509020928 75 335 1.0 4.0 0.00 0.00 0.00 98 1008.9
20260509020825 75 351 1.0 4.0 0.00 0.00 0.00 98 1008.8
20260509020709 75 0 1.0 4.0 0.00 0.00 0.00 98 1008.8
20260509020618 75 43 1.0 4.0 0.00 0.00 0.00 98 1008.8
20260509020516 75 3 1.0 4.0 0.00 0.00 0.00 98 1008.8
20260509020416 75 53 1.0 4.0 0.00 0.00 0.00 98 1008.8
20260509020310 75 52 1.0 4.0 0.00 0.00 0.00 98 1008.8
20260509020210 75 105 1.0 4.0 0.00 0.00 0.00 98 1008.8
20260509020110 75 37 1.0 4.0 0.00 0.00 0.00 98 1008.8
20260509020010 75 249 1.0 4.0 0.00 0.00 0.00 98 1008.6
20260509015929 75 72 1.0 3.0 0.00 0.00 0.00 98 1008.6
20260509015910 75 93 1.0 3.0 0.00 0.00 0.00 98 1008.6
20260509015816 75 43 1.0 3.0 0.00 0.00 0.00 98 1008.6
20260509015658 75 72 1.0 3.0 0.00 0.00 0.00 98 1008.6
20260509015558 75 87 1.0 3.0 0.00 0.00 0.00 98 1008.6
20260509015458 75 91 1.0 3.0 0.00 0.00 0.00 98 1008.6
20260509015358 75 0 1.0 2.0 0.00 0.00 0.00 98 1008.6
20260509015258 75 73 1.0 2.0 0.00 0.00 0.00 98 1008.6
20260509015209 75 53 1.0 2.0 0.00 0.00 0.00 97 1008.7
20260509015159 75 21 1.0 2.0 0.00 0.00 0.00 97 1008.7
20260509015055 75 71 1.0 2.0 0.00 0.00 0.00 97 1008.7
20260509014955 75 79 1.0 2.0 0.00 0.00 0.00 97 1008.7
20260509014856 75 64 1.0 2.0 0.00 0.00 0.00 98 1008.8
20260509014755 75 49 1.0 2.0 0.00 0.00 0.00 98 1008.8
20260509014709 75 57 1.0 2.0 0.00 0.00 0.00 97 1008.8
20260509014655 75 55 1.0 2.0 0.00 0.00 0.00 97 1008.8
20260509014555 75 26 1.0 2.0 0.00 0.00 0.00 97 1008.8
20260509014455 75 296 1.0 2.0 0.00 0.00 0.00 97 1008.7
20260509014355 75 16 1.0 2.0 0.00 0.00 0.00 97 1008.7
20260509014252 75 71 1.0 2.0 0.00 0.00 0.00 97 1008.7
20260509014210 75 30 1.0 2.0 0.00 0.00 0.00 97 1008.8
20260509014153 75 33 1.0 2.0 0.00 0.00 0.00 97 1008.8
20260509014053 75 26 1.0 2.0 0.00 0.00 0.00 97 1008.8
20260509013953 75 14 1.0 2.0 0.00 0.00 0.00 97 1008.9
20260509013852 75 288 1.0 2.0 0.00 0.00 0.00 97 1008.9
20260509013749 75 0 1.0 2.0 0.00 0.00 0.00 97 1008.9
20260509013709 75 15 1.0 3.0 0.00 0.00 0.00 97 1008.7
20260509013650 75 0 1.0 3.0 0.00 0.00 0.00 97 1008.7
20260509013550 75 307 1.0 6.0 0.00 0.00 0.00 97 1008.7
20260509013447 75 258 1.0 6.0 0.00 0.00 0.00 97 1008.4
20260509013347 75 0 1.0 6.0 0.00 0.00 0.00 97 1008.4
20260509013247 75 45 1.0 6.0 0.00 0.00 0.00 97 1008.3
20260509013207 75 60 1.0 6.0 0.00 0.00 0.00 97 1008.3
20260509013144 75 65 1.0 6.0 0.00 0.00 0.00 97 1008.3
20260509013040 75 72 1.0 6.0 0.00 0.00 0.00 97 1008.3
20260509012937 75 10 1.0 6.0 0.00 0.00 0.00 97 1008.3
20260509012835 75 51 1.0 6.0 0.00 0.00 0.00 97 1008.3
20260509012731 75 55 1.0 6.0 0.00 0.00 0.00 97 1008.4
20260509012706 75 43 1.0 6.0 0.00 0.00 0.00 97 1008.4
20260509012629 75 19 1.0 6.0 0.00 0.00 0.00 97 1008.5
20260509012529 75 27 1.0 2.0 0.00 0.00 0.00 97 1008.6
20260509012429 75 0 1.0 2.0 0.00 0.00 0.00 97 1008.6
20260509012320 75 308 1.0 2.0 0.00 0.00 0.00 97 1008.7
20260509012206 75 0 1.0 2.0 0.00 0.00 0.00 97 1008.6
20260509012119 75 0 1.0 3.0 0.00 0.00 0.00 97 1008.5
20260509012017 75 312 1.0 3.0 0.00 0.00 0.00 97 1008.4
20260509011917 75 295 1.0 3.0 0.00 0.00 0.00 97 1008.4
20260509011817 75 347 1.0 3.0 0.00 0.00 0.00 97 1008.3
20260509011717 75 50 1.0 3.0 0.00 0.00 0.00 97 1008.3
20260509011703 75 27 1.0 3.0 0.00 0.00 0.00 97 1008.3
20260509011617 75 102 1.0 3.0 0.00 0.00 0.00 97 1008.3
20260509011517 75 51 1.0 3.0 0.00 0.00 0.00 97 1008.3
20260509011417 75 51 1.0 3.0 0.00 0.00 0.00 97 1008.5
20260509011317 75 52 1.0 3.0 0.00 0.00 0.00 97 1008.7
20260509011218 75 58 1.0 3.0 0.00 0.00 0.00 97 1008.7
20260509011201 75 19 1.0 3.0 0.00 0.00 0.00 97 1008.7
20260509011117 75 10 1.0 3.0 0.00 0.00 0.00 97 1008.7
20260509011017 75 0 1.0 2.0 0.00 0.00 0.00 97 1008.7
20260509010914 75 334 1.0 2.0 0.00 0.00 0.00 97 1008.7
20260509010814 75 345 1.0 3.0 0.00 0.00 0.00 97 1008.5
20260509010714 75 46 1.0 5.0 0.00 0.00 0.00 97 1008.5
20260509010658 75 26 1.0 5.0 0.00 0.00 0.00 97 1008.5
20260509010608 75 49 1.0 6.0 0.00 0.00 0.00 97 1008.5
20260509010508 75 99 2.0 6.0 0.00 0.00 0.00 97 1008.6
20260509010412 75 101 2.0 6.0 0.00 0.00 0.00 97 1008.7
20260509010405 75 98 2.0 6.0 0.00 0.00 0.00 97 1008.6
20260509010306 75 86 2.0 6.0 0.00 0.00 0.00 97 1008.7
20260509010300 75 79 2.0 6.0 0.00 0.00 0.00 97 1008.7
20260509005959 75 51 2.0 6.0 0.00 0.00 0.00 97 1008.5
20260509005859 75 63 2.0 6.0 0.00 0.00 0.00 97 1008.4
20260509005759 75 98 2.0 6.0 0.00 0.00 0.00 97 1008.4
20260509005701 75 127 2.0 6.0 0.00 0.00 0.00 97 1008.4
20260509005655 75 119 2.0 6.0 0.00 0.00 0.00 97 1008.4
20260509005559 75 83 2.0 6.0 0.00 0.00 0.00 97 1008.4
20260509005459 75 96 2.0 6.0 0.00 0.00 0.00 97 1008.4
20260509005359 75 89 2.0 4.0 0.00 0.00 0.00 97 1008.4
20260509005257 75 79 1.0 2.0 0.00 0.00 0.00 97 1008.5
20260509005158 75 73 1.0 2.0 0.00 0.00 0.00 97 1008.5
20260509005153 75 84 1.0 2.0 0.00 0.00 0.00 97 1008.5
20260509005057 75 65 1.0 2.0 0.00 0.00 0.00 97 1008.6
20260509004957 75 53 1.0 2.0 0.00 0.00 0.00 97 1008.6
20260509004857 75 73 1.0 2.0 0.00 0.00 0.00 96 1008.6
20260509004757 75 66 1.0 2.0 0.00 0.00 0.00 96 1008.8
20260509004654 75 56 1.0 2.0 0.00 0.00 0.00 96 1008.8
20260509004553 75 42 1.0 2.0 0.00 0.00 0.00 96 1008.8
20260509004453 75 21 1.0 3.0 0.00 0.00 0.00 96 1008.9
20260509004350 75 0 1.0 3.0 0.00 0.00 0.00 96 1008.9
20260509004250 75 343 1.0 3.0 0.00 0.00 0.00 96 1008.9
20260509004150 75 337 1.0 4.0 0.00 0.00 0.00 96 1008.9
20260509004051 75 33 2.0 5.0 0.00 0.00 0.00 96 1008.9
20260509003948 75 39 2.0 5.0 0.00 0.00 0.00 96 1008.9
20260509003847 75 29 2.0 5.0 0.00 0.00 0.00 96 1008.9
20260509003748 75 50 2.0 5.0 0.00 0.00 0.00 96 1008.9
20260509003648 75 52 2.0 5.0 0.00 0.00 0.00 96 1008.9
20260509003548 75 12 2.0 5.0 0.00 0.00 0.00 96 1008.9
20260509003448 75 39 1.0 5.0 0.00 0.00 0.00 96 1008.9
20260509003341 75 33 1.0 5.0 0.00 0.00 0.00 96 1008.9
20260509003241 75 58 1.0 5.0 0.00 0.00 0.00 97 1008.8
20260509003147 75 11 1.0 5.0 0.00 0.00 0.00 97 1008.8
20260509003142 75 14 1.0 5.0 0.00 0.00 0.00 97 1008.8
20260509003042 75 33 1.0 3.0 0.00 0.00 0.00 97 1008.8
20260509002938 75 31 1.0 3.0 0.00 0.00 0.00 97 1008.8
20260509002839 75 0 1.0 2.0 0.00 0.00 0.00 97 1008.8
20260509002739 75 59 1.0 2.0 0.00 0.00 0.00 97 1008.8
20260509002639 75 0 1.0 2.0 0.00 0.00 0.00 97 1008.8
20260509002537 75 8 1.0 2.0 0.00 0.00 0.00 97 1008.9
20260509002430 75 18 1.0 3.0 0.00 0.00 0.00 97 1008.9
20260509002329 75 0 1.0 4.0 0.00 0.00 0.00 96 1008.9
20260509002224 75 325 1.0 4.0 0.00 0.00 0.00 96 1008.9
20260509002141 75 278 1.0 4.0 0.00 0.00 0.00 96 1008.9
20260509002124 75 324 1.0 4.0 0.00 0.00 0.00 96 1008.8
20260509002021 75 303 1.0 4.0 0.00 0.00 0.00 96 1008.8
20260509001921 75 135 1.0 4.0 0.00 0.00 0.00 96 1008.8
20260509001821 75 325 1.0 4.0 0.00 0.00 0.00 96 1008.1
20260509001718 75 329 1.0 4.0 0.00 0.00 0.00 96 1008.1
20260509001640 75 306 1.0 4.0 0.00 0.00 0.00 96 1008.1
20260509001615 75 284 2.0 4.0 0.00 0.00 0.00 96 1008.1
20260509001512 75 30 2.0 4.0 0.00 0.00 0.00 96 1008.1
20260509001406 75 348 1.0 3.0 0.00 0.00 0.00 96 1008.1
20260509001303 75 280 2.0 3.0 0.00 0.00 0.00 96 1007.9
20260509001201 75 65 2.0 3.0 0.00 0.00 0.00 96 1007.9
20260509001140 75 96 2.0 3.0 0.00 0.00 0.00 96 1007.9
20260509001100 75 82 1.0 3.0 0.00 0.00 0.00 96 1007.9
20260509000927 75 81 1.0 3.0 0.00 0.00 0.00 96 1007.9
20260509000826 75 55 2.0 3.0 0.00 0.00 0.00 96 1007.9
20260509000721 0 95 2.0 3.0 0.00 0.00 0.00
20260509000621 75 37 2.0 4.0 0.00 0.00 0.00 95 1008.2
20260509000506 75 105 2.0 4.0 0.00 0.00 0.00 95 1008.2
20260509000348 75 90 2.0 4.0 0.00 0.00 0.00 95 1008.2
20260509000204 75 74 2.0 4.0 0.00 0.00 0.00 95 1008.2
20260509000058 75 91 2.0 4.0 0.00 0.00 0.00 95 1008.2
20260508235939 75 93 1.0 4.0 0.00 0.00 0.00 95 1008.2
20260508235839 75 86 1.0 4.0 0.00 0.00 0.00 95 1008.2
20260508235803 75 103 1.0 3.0 0.00 0.00 0.00 95 1008.5
20260508235721 75 79 1.0 4.0 0.00 0.00 0.00 95 1008.2
20260508235641 75 53 1.0 4.0 0.00 0.00 0.00 95 1008.3
20260508235512 75 80 1.0 3.0 0.00 0.00 0.00 95 1008.5
20260508235412 75 73 1.0 3.0 0.00 0.00 0.00 95 1008.6
20260508235312 75 198 1.0 3.0 0.00 0.00 0.00 95 1008.7
20260508235212 75 307 1.0 3.0 0.00 0.00 0.00 95 1008.7
20260508235113 75 114 1.0 3.0 0.00 0.00 0.00 95 1008.7
20260508235012 75 0 1.0 3.0 0.00 0.00 0.00 95 1008.6
20260508234907 75 21 2.0 3.0 0.00 0.00 0.00 95 1008.5
20260508234806 75 39 2.0 3.0 0.00 0.00 0.00 95 1008.5
20260508234706 75 344 2.0 3.0 0.00 0.00 0.00 95 1008.5
20260508234603 75 55 2.0 3.0 0.00 0.00 0.00 95 1008.5
20260508234536 75 25 2.0 3.0 0.00 0.00 0.00 95 1008.5
20260508234504 75 19 2.0 3.0 0.00 0.00 0.00 95 1008.5
20260508234403 75 48 2.0 3.0 0.00 0.00 0.00 95 1008.6
20260508234300 75 55 2.0 3.0 0.00 0.00 0.00 95 1008.6
20260508234253 75 51 2.0 3.0 0.00 0.00 0.00 95 1008.7
20260508234200 75 57 2.0 3.0 0.00 0.00 0.00 95 1008.6
20260508234138 75 41 2.0 3.0 0.00 0.00 0.00 95 1008.7
20260508234001 75 45 2.0 3.0 0.00 0.00 0.00 95 1008.7
20260508233858 75 70 1.0 3.0 0.00 0.00 0.00 94 1009.1
20260508233751 75 61 1.0 3.0 0.00 0.00 0.00 94 1009.1
20260508233648 75 55 1.0 3.0 0.00 0.00 0.00 94 1009.1
20260508233548 75 35 1.0 2.0 0.00 0.00 0.00 94 1009.1
20260508233532 75 45 1.0 2.0 0.00 0.00 0.00 94 1009.1
20260508233438 75 38 1.0 2.0 0.00 0.00 0.00 94 1009.1
20260508233337 75 357 1.0 2.0 0.00 0.00 0.00 94 1009.2
20260508233238 75 342 1.0 2.0 0.00 0.00 0.00 94 1009.2
20260508233139 75 9 1.0 2.0 0.00 0.00 0.00 95 1009.2
20260508233033 75 353 1.0 3.0 0.00 0.00 0.00 95 1009.1
20260508232931 75 14 1.0 3.0 0.00 0.00 0.00 95 1009.1
20260508232828 75 4 1.0 3.0 0.00 0.00 0.00 94 1009.0
20260508232728 75 311 1.0 4.0 0.00 0.00 0.00 94 1008.9
20260508232627 75 27 1.0 4.0 0.00 0.00 0.00 94 1008.9
20260508232528 75 116 2.0 4.0 0.00 0.00 0.00 94 1008.9
20260508232424 75 60 2.0 4.0 0.00 0.00 0.00 94 1008.8
20260508232324 75 118 2.0 4.0 0.00 0.00 0.00 94 1008.8
20260508232221 75 48 2.0 4.0 0.00 0.00 0.00 94 1008.8
20260508232121 75 49 2.0 4.0 0.00 0.00 0.00 94 1008.7
20260508232023 75 96 2.0 4.0 0.00 0.00 0.00 94 1008.7
20260508232019 75 76 2.0 4.0 0.00 0.00 0.00 94 1008.7
20260508231916 75 61 2.0 4.0 0.00 0.00 0.00 94 1008.6
20260508231813 75 86 2.0 4.0 0.00 0.00 0.00 94 1008.6
20260508231713 75 92 2.0 4.0 0.00 0.00 0.00 94 1008.6
20260508231613 75 129 2.0 4.0 0.00 0.00 0.00 94 1008.6
20260508231524 75 80 2.0 5.0 0.00 0.00 0.00 94 1008.7
20260508231512 75 71 2.0 5.0 0.00 0.00 0.00 94 1008.7
20260508231406 75 123 2.0 5.0 0.00 0.00 0.00 94 1008.7
20260508231303 75 341 2.0 5.0 0.00 0.00 0.00 94 1008.7
20260508231205 75 51 2.0 5.0 0.00 0.00 0.00 94 1008.7
20260508231058 75 46 2.0 6.0 0.00 0.00 0.00 94 1008.7
20260508231021 75 102 2.0 6.0 0.00 0.00 0.00 94 1008.6
20260508230953 75 76 2.0 6.0 0.00 0.00 0.00 94 1008.6
20260508230850 75 72 2.0 6.0 0.00 0.00 0.00 94 1008.6
20260508230750 75 83 2.0 6.0 0.00 0.00 0.00 94 1008.6
20260508230651 75 66 2.0 6.0 0.00 0.00 0.00 94 1008.6
20260508230547 75 88 2.0 6.0 0.00 0.00 0.00 95 1008.6
20260508230514 75 91 2.0 6.0 0.00 0.00 0.00 95 1008.6
20260508230449 75 98 2.0 6.0 0.00 0.00 0.00 95 1008.6
20260508230349 75 71 2.0 6.0 0.00 0.00 0.00 95 1008.6
20260508230246 75 50 2.0 6.0 0.00 0.00 0.00 95 1008.6
20260508230145 74 111 2.0 6.0 0.00 0.00 0.00 95 1008.7
20260508230047 74 77 2.0 6.0 0.00 0.00 0.00 95 1008.7
20260508230012 74 84 2.0 6.0 0.00 0.00 0.00 95 1008.7
20260508225916 74 123 2.0 6.0 0.00 0.00 0.00 95 1008.8
20260508225817 74 85 2.0 6.0 0.00 0.00 0.00 95 1008.8
20260508225707 74 80 2.0 4.0 0.00 0.00 0.00 95 1008.8
20260508225601 74 86 2.0 3.0 0.00 0.00 0.00 95 1008.8
20260508225501 74 303 2.0 3.0 0.00 0.00 0.00 95 1008.8
20260508225349 74 100 2.0 3.0 0.00 0.00 0.00 95 1008.9
20260508225246 74 40 1.0 3.0 0.00 0.00 0.00 95 1008.9
20260508225146 74 86 1.0 3.0 0.00 0.00 0.00 95 1008.9
20260508225046 74 65 1.0 2.0 0.00 0.00 0.00 95 1008.9
20260508225000 74 76 1.0 2.0 0.00 0.00 0.00 95 1008.9
20260508224946 74 176 1.0 2.0 0.00 0.00 0.00 95 1008.9
20260508224843 74 79 1.0 3.0 0.00 0.00 0.00 95 1008.9
20260508224743 74 122 1.0 4.0 0.00 0.00 0.00 95 1008.8
20260508224644 74 55 1.0 4.0 0.00 0.00 0.00 95 1008.8
20260508224543 74 61 1.0 4.0 0.00 0.00 0.00 95 1008.9
20260508224500 74 55 1.0 4.0 0.00 0.00 0.00 95 1008.9
20260508224443 74 49 1.0 4.0 0.00 0.00 0.00 95 1008.9
20260508224340 74 84 2.0 4.0 0.00 0.00 0.00 95 1008.9
20260508224238 74 12 2.0 4.0 0.00 0.00 0.00 95 1008.9
20260508224138 74 100 2.0 4.0 0.00 0.00 0.00 95 1008.9
20260508224039 74 87 2.0 4.0 0.00 0.00 0.00 95 1008.9
20260508223951 74 61 2.0 5.0 0.00 0.00 0.00 95 1008.9
20260508223939 74 84 2.0 5.0 0.00 0.00 0.00 95 1008.9
20260508223839 74 102 2.0 5.0 0.00 0.00 0.00 95 1008.8
20260508223738 74 9 2.0 5.0 0.00 0.00 0.00 95 1008.7
20260508223638 74 90 2.0 5.0 0.00 0.00 0.00 95 1008.7
20260508223538 74 69 2.0 5.0 0.00 0.00 0.00 95 1008.7
20260508223451 74 97 2.0 5.0 0.00 0.00 0.00 95 1008.7
20260508223434 74 50 2.0 5.0 0.00 0.00 0.00 95 1008.7
20260508223334 74 121 2.0 5.0 0.00 0.00 0.00 95 1008.7
20260508223234 74 103 2.0 5.0 0.00 0.00 0.00 96 1008.7
20260508223134 74 86 2.0 5.0 0.00 0.00 0.00 96 1008.7
20260508223034 74 93 2.0 5.0 0.00 0.00 0.00 96 1008.7
20260508222951 74 351 2.0 4.0 0.00 0.00 0.00 96 1008.7
20260508222934 74 63 2.0 4.0 0.00 0.00 0.00 96 1008.7
20260508222834 74 47 2.0 4.0 0.00 0.00 0.00 96 1008.7
20260508222734 74 48 2.0 4.0 0.00 0.00 0.00 96 1008.7
20260508222713 74 7 2.0 5.0 0.00 0.00 0.00 96 1008.7
20260508222631 74 30 2.0 5.0 0.00 0.00 0.00 96 1008.7
20260508222557 74 26 2.0 5.0 0.00 0.00 0.00 96 1008.7
20260508222432 74 124 2.0 5.0 0.00 0.00 0.00 96 1008.7
20260508222332 74 67 2.0 5.0 0.00 0.00 0.00 96 1008.7
20260508222232 74 58 2.0 5.0 0.00 0.00 0.00 96 1008.7
20260508222129 74 63 2.0 5.0 0.00 0.00 0.00 96 1008.7
20260508222029 74 40 2.0 5.0 0.00 0.00 0.00 96 1008.7
20260508221951 74 63 2.0 5.0 0.00 0.00 0.00 96 1008.7
20260508221925 74 33 2.0 5.0 0.00 0.00 0.00 96 1008.7
20260508221826 74 63 2.0 5.0 0.00 0.00 0.00 96 1008.7
20260508221726 74 12 2.0 5.0 0.00 0.00 0.00 96 1008.7
20260508221720 74 65 2.0 4.0 0.00 0.00 0.00 97 1008.8
20260508221626 74 19 2.0 5.0 0.00 0.00 0.00 97 1008.7
20260508221557 74 44 2.0 4.0 0.00 0.00 0.00 97 1008.8
20260508221422 74 23 2.0 4.0 0.00 0.00 0.00 97 1008.8
20260508221319 73 61 2.0 3.0 0.00 0.00 0.00 97 1008.8
20260508221219 73 44 2.0 3.0 0.00 0.00 0.00 97 1008.8
20260508221210 73 45 2.0 4.0 0.00 0.00 0.00 97 1008.8
20260508221116 73 29 2.0 3.0 0.00 0.00 0.00 97 1008.8
20260508221054 73 38 2.0 4.0 0.00 0.00 0.00 97 1008.8
20260508220910 73 37 2.0 4.0 0.00 0.00 0.00 97 1008.9
20260508220808 73 42 2.0 4.0 0.00 0.00 0.00 97 1008.9
20260508220707 73 353 2.0 4.0 0.00 0.00 0.00 97 1009.0
20260508220605 73 48 2.0 4.0 0.00 0.00 0.00 97 1009.0
20260508220505 73 20 1.0 4.0 0.00 0.00 0.00 97 1009.1
20260508220445 73 51 1.0 4.0 0.00 0.00 0.00 97 1009.1
20260508220405 73 77 1.0 4.0 0.00 0.00 0.00 97 1009.1
20260508220259 73 33 1.0 4.0 0.00 0.00 0.00 97 1009.1
20260508220155 73 1 1.0 4.0 0.00 0.00 0.00 97 1009.1
20260508220057 73 22 1.0 4.0 0.00 0.00 0.00 98 1009.0
20260508215955 73 309 1.0 3.0 0.00 0.00 0.00 98 1009.0
20260508215942 73 66 1.0 3.0 0.00 0.00 0.00 98 1009.0
20260508215853 73 58 1.0 3.0 0.00 0.00 0.00 98 1009.0
20260508215750 73 63 1.0 3.0 0.00 0.00 0.00 98 1009.0
20260508215647 73 46 1.0 3.0 0.00 0.00 0.00 98 1009.0
20260508215547 73 56 1.0 3.0 0.00 0.00 0.00 98 1009.0
20260508215441 73 35 1.0 3.0 0.00 0.00 0.00 98 1009.0
20260508215338 73 87 1.0 3.0 0.00 0.00 0.00 98 1009.0
20260508215238 73 54 1.0 3.0 0.00 0.00 0.00 98 1008.9
20260508215135 73 0 1.0 3.0 0.00 0.00 0.00 98 1008.9
20260508215032 73 11 1.0 3.0 0.00 0.00 0.00 98 1008.9
20260508214940 73 308 1.0 3.0 0.00 0.00 0.00 98 1008.9
20260508214932 73 291 1.0 3.0 0.00 0.00 0.00 98 1008.9
20260508214832 73 34 1.0 3.0 0.00 0.00 0.00 98 1008.8
20260508214729 73 40 1.0 3.0 0.00 0.00 0.00 98 1008.8
20260508214629 72 72 1.0 3.0 0.00 0.00 0.00 98 1008.8
20260508214526 72 53 1.0 3.0 0.00 0.00 0.00 98 1008.8
20260508214437 72 59 1.0 3.0 0.00 0.00 0.00 98 1008.9
20260508214414 72 10 1.0 3.0 0.00 0.00 0.00 98 1008.9
20260508214314 72 59 1.0 3.0 0.00 0.00 0.00 98 1009.0
20260508214214 72 26 1.0 3.0 0.00 0.00 0.00 98 1009.0
20260508214114 72 32 1.0 3.0 0.00 0.00 0.00 98 1009.0
20260508214014 72 38 1.0 3.0 0.00 0.00 0.00 98 1009.1
20260508213936 72 354 1.0 3.0 0.00 0.00 0.00 98 1009.1
20260508213914 72 38 1.0 3.0 0.00 0.00 0.00 98 1009.1
20260508213811 72 59 1.0 3.0 0.00 0.00 0.00 98 1009.1
20260508213705 72 51 1.0 3.0 0.00 0.00 0.00 98 1009.2
20260508213605 72 41 1.0 3.0 0.00 0.00 0.00 98 1009.2
20260508213502 72 21 1.0 3.0 0.00 0.00 0.00 98 1009.2
20260508213437 72 34 1.0 3.0 0.00 0.00 0.00 98 1009.2
20260508213402 72 54 1.0 3.0 0.00 0.00 0.00 98 1009.2
20260508213302 72 17 1.0 3.0 0.00 0.00 0.00 98 1009.2
20260508213202 72 0 1.0 3.0 0.00 0.00 0.00 98 1009.2
20260508213059 72 50 1.0 3.0 0.00 0.00 0.00 98 1009.2
20260508212959 72 11 1.0 3.0 0.00 0.00 0.00 98 1009.2
20260508212937 72 46 1.0 3.0 0.00 0.00 0.00 98 1009.2
20260508212900 72 95 1.0 3.0 0.00 0.00 0.00 98 1009.2
20260508212759 72 35 1.0 3.0 0.00 0.00 0.00 98 1009.2
20260508212658 72 69 1.0 3.0 0.00 0.00 0.00 98 1009.2
20260508212600 72 77 1.0 3.0 0.00 0.00 0.00 98 1009.2
20260508212456 72 0 1.0 4.0 0.00 0.00 0.00 98 1009.2
20260508212437 72 97 1.0 4.0 0.00 0.00 0.00 98 1009.3
20260508212353 72 0 1.0 4.0 0.00 0.00 0.00 98 1009.3
20260508212253 72 62 2.0 4.0 0.00 0.00 0.00 98 1009.3
20260508212155 72 96 1.0 4.0 0.00 0.00 0.00 98 1009.3
20260508212150 72 227 1.0 4.0 0.00 0.00 0.00 97 1009.4
20260508212053 72 79 1.0 4.0 0.00 0.00 0.00 97 1009.4
20260508212030 72 13 1.0 4.0 0.00 0.00 0.00 97 1009.4
20260508211851 72 113 1.0 4.0 0.00 0.00 0.00 97 1009.4
20260508211751 72 135 1.0 4.0 0.00 0.00 0.00 97 1009.4
20260508211652 72 100 1.0 3.0 0.00 0.00 0.00 97 1009.3
20260508211647 72 45 1.0 4.0 0.00 0.00 0.00 97 1009.4
20260508211547 72 78 1.0 4.0 0.00 0.00 0.00 97 1009.4
20260508211531 72 101 1.0 3.0 0.00 0.00 0.00 97 1009.3
20260508211348 72 103 1.0 3.0 0.00 0.00 0.00 97 1009.3
20260508211245 72 107 1.0 2.0 0.00 0.00 0.00 97 1009.4
20260508211145 72 0 1.0 2.0 0.00 0.00 0.00 97 1009.4
20260508211044 72 68 1.0 2.0 0.00 0.00 0.00 97 1009.4
20260508210945 72 0 1.0 2.0 0.00 0.00 0.00 97 1009.4
20260508210925 72 89 1.0 2.0 0.00 0.00 0.00 97 1009.4
20260508210844 72 331 1.0 2.0 0.00 0.00 0.00 97 1009.4
20260508210745 72 95 1.0 2.0 0.00 0.00 0.00 97 1009.4
20260508210653 72 31 1.0 3.0 0.00 0.00 0.00 97 1009.4
20260508210642 72 94 1.0 3.0 0.00 0.00 0.00 97 1009.3
20260508210541 72 86 1.0 3.0 0.00 0.00 0.00 97 1009.4
20260508210531 72 94 1.0 3.0 0.00 0.00 0.00 97 1009.4
20260508210340 72 106 1.0 3.0 0.00 0.00 0.00 97 1009.4
20260508210240 72 38 1.0 3.0 0.00 0.00 0.00 97 1009.4
20260508210140 72 48 1.0 3.0 0.00 0.00 0.00 97 1009.4
20260508210046 72 58 1.0 3.0 0.00 0.00 0.00 97 1009.4
20260508205941 72 38 1.0 3.0 0.00 0.00 0.00 97 1009.4
20260508205925 72 320 1.0 3.0 0.00 0.00 0.00 97 1009.4
20260508205841 72 43 1.0 3.0 0.00 0.00 0.00 96 1009.4
20260508205740 72 96 1.0 3.0 0.00 0.00 0.00 96 1009.4
20260508205638 72 88 1.0 3.0 0.00 0.00 0.00 97 1009.4
20260508205535 72 0 1.0 3.0 0.00 0.00 0.00 96 1009.4
20260508205435 72 0 1.0 4.0 0.00 0.00 0.00 96 1009.4
20260508205422 72 190 1.0 4.0 0.00 0.00 0.00 96 1009.4
20260508205332 72 0 1.0 4.0 0.00 0.00 0.00 96 1009.4
20260508205233 72 102 1.0 4.0 0.00 0.00 0.00 96 1009.4
20260508205132 72 102 1.0 4.0 0.00 0.00 0.00 96 1009.4
20260508205033 72 59 1.0 4.0 0.00 0.00 0.00 96 1009.5
20260508204930 72 41 1.0 4.0 0.00 0.00 0.00 96 1009.5
20260508204914 72 53 1.0 4.0 0.00 0.00 0.00 96 1009.5
20260508204830 72 58 1.0 4.0 0.00 0.00 0.00 96 1009.5
20260508204727 72 30 1.0 4.0 0.00 0.00 0.00 96 1009.5
20260508204627 72 58 1.0 4.0 0.00 0.00 0.00 95 1009.5
20260508204526 72 0 1.0 4.0 0.00 0.00 0.00 95 1009.5
20260508204424 72 71 1.0 4.0 0.00 0.00 0.00 95 1009.5
20260508204411 72 79 1.0 4.0 0.00 0.00 0.00 95 1009.5
20260508204318 72 106 1.0 2.0 0.00 0.00 0.00 95 1009.5
20260508204218 72 0 1.0 2.0 0.00 0.00 0.00 95 1009.5
20260508204115 72 34 1.0 3.0 0.00 0.00 0.00 95 1009.5
20260508204014 73 0 1.0 3.0 0.00 0.00 0.00 95 1009.6
20260508203910 73 74 1.0 3.0 0.00 0.00 0.00 95 1009.6
20260508203815 73 96 1.0 3.0 0.00 0.00 0.00 94 1009.6
20260508203712 73 107 1.0 3.0 0.00 0.00 0.00 94 1009.6
20260508203609 73 49 1.0 3.0 0.00 0.00 0.00 94 1009.6